GFSNW_850_thetae_000.txt.gz
Theta_e
313 315 316 319 314 314 318 320 322 319 315 320 322 329 323 320 321 322 323 323 323 323 323 323 323 323 323 319 320 321 318 320 327 320 319 319 320 321 319 326 323 327 326 321
313 315 317 319 314 314 319 322 325 315 316 329 339 324 323 322 321 321 322 323 323 324 324 324 323 323 320 320 321 321 320 325 327 322 323 321 319 320 318 321 320 320 326 322
311 314 318 319 315 319 325 325 328 319 321 327 325 325 323 323 322 322 323 323 322 323 324 323 324 323 321 320 318 315 318 320 320 323 319 317 318 317 317 317 324 322 322 319
309 313 317 318 319 318 322 326 324 319 332 328 324 323 323 323 322 322 322 322 322 323 324 324 323 323 320 319 315 319 320 322 320 318 317 316 316 316 317 317 318 318 319 317
308 310 313 318 319 321 320 325 324 323 324 322 323 321 323 323 322 322 321 322 322 323 324 321 322 320 319 320 319 320 319 325 319 320 317 316 317 316 316 316 316 317 317 317
307 309 312 315 317 317 322 321 321 324 323 324 326 326 323 323 322 322 321 322 323 324 321 320 320 319 319 318 320 322 320 322 320 323 318 318 322 320 317 317 317 317 319 317
308 308 310 314 315 317 322 322 322 324 330 329 326 324 322 322 322 321 320 320 323 320 318 317 318 319 319 319 319 320 315 318 320 321 318 325 319 316 317 316 316 316 316 317
308 308 309 313 315 315 316 317 323 324 320 327 324 322 321 321 320 321 321 321 320 319 320 324 318 318 314 316 317 319 319 322 316 322 319 317 317 317 316 316 316 316 318 316
308 307 308 310 315 315 316 316 319 323 324 328 321 321 321 326 326 323 320 321 320 320 324 321 319 325 320 320 317 316 317 317 322 317 318 318 319 316 315 315 318 317 316 314
308 307 308 309 314 316 317 315 317 322 323 322 322 323 324 322 323 323 321 321 321 321 320 315 329 324 318 320 320 316 315 316 318 318 317 317 315 315 314 317 319 316 314 312
308 308 307 309 312 316 318 318 316 322 322 321 322 321 322 321 321 326 321 322 323 324 316 320 324 321 322 321 318 317 317 318 315 318 317 318 315 315 316 317 315 314 312 311
307 308 308 308 310 314 317 323 317 318 322 321 319 320 320 320 320 322 321 320 322 322 324 321 323 316 314 321 321 316 320 321 322 319 319 316 315 315 315 315 314 312 310 309
307 308 308 308 309 311 316 322 317 318 320 321 317 318 317 318 319 321 321 321 320 320 321 315 313 313 315 315 321 319 316 315 322 319 317 315 315 314 314 313 312 311 310 308
309 308 308 308 309 310 313 318 317 322 318 318 323 320 317 315 315 317 319 320 320 321 318 312 309 312 318 317 318 321 319 316 317 317 316 315 315 314 313 312 310 310 309 308
310 310 309 308 308 309 312 314 316 319 322 318 323 319 319 315 316 319 318 318 317 320 316 308 313 319 321 319 317 320 316 315 318 319 316 316 315 312 310 310 310 309 308 304
311 311 310 310 309 310 312 320 315 316 318 319 319 320 318 317 319 321 320 319 319 320 319 314 317 318 318 315 316 315 314 313 314 314 315 314 313 311 310 308 307 305 303 302
310 311 311 312 311 313 320 319 320 316 316 317 318 320 316 317 319 320 320 319 319 319 319 318 317 318 317 311 316 314 313 312 313 313 313 312 310 310 309 305 304 302 301 299
310 310 311 312 312 314 316 317 315 317 318 318 317 316 314 315 316 316 316 318 317 318 318 315 315 316 316 317 314 314 313 313 312 310 310 309 309 308 305 303 301 299 298 297
310 310 311 311 312 313 315 315 314 316 317 319 313 312 313 314 312 312 311 312 313 313 314 314 314 313 314 314 313 313 313 312 310 309 308 307 305 303 302 300 298 297 297 296
310 311 312 312 313 312 312 314 314 315 316 315 311 314 315 313 309 308 308 308 311 312 309 309 307 311 312 312 312 312 311 310 309 308 306 304 302 300 298 297 297 297 296 292
311 311 312 311 313 313 314 313 313 312 311 311 311 311 310 310 309 308 308 307 308 311 310 310 309 309 309 309 310 309 308 308 307 306 305 302 298 297 297 296 296 294 292 292
308 309 309 309 309 308 310 308 307 307 313 307 306 309 310 307 309 308 304 307 303 310 305 306 310 310 310 309 307 307 306 305 302 300 298 297 296 296 295 294 291 291 292 292
306 306 306 304 301 304 306 309 306 307 303 303 303 302 304 305 305 302 302 305 307 303 307 308 309 308 307 307 306 305 303 299 297 297 296 295 294 292 291 290 291 292 292 292
303 300 303 302 304 303 303 303 301 301 302 302 303 301 302 301 302 300 305 303 304 307 308 308 308 305 306 305 304 302 298 297 295 294 294 294 293 291 290 290 292 292 292 292
300 301 304 303 298 299 299 299 299 300 301 302 301 301 302 300 302 301 303 303 306 306 308 305 303 304 303 302 301 301 298 296 294 294 293 291 290 290 291 291 292 292 292 292
300 299 301 299 300 300 299 300 300 300 300 301 301 301 304 304 304 303 305 306 306 307 305 302 299 298 298 297 296 295 295 295 294 293 291 291 291 291 291 291 291 292 292 291
299 298 298 299 300 300 300 300 300 301 301 301 302 304 302 300 304 304 304 305 304 301 301 300 298 296 295 294 294 293 293 294 294 292 291 291 291 291 292 292 292 293 293 293

GFSNW_850_thetae_003.txt.gz
Theta_e
314 315 317 317 313 314 315 322 321 324 318 317 322 323 327 320 320 322 322 323 322 323 322 323 323 323 321 320 321 319 317 317 314 319 318 319 319 320 320 314 321 314 312 314
313 316 317 318 313 314 317 322 325 319 316 315 316 326 322 321 320 321 322 323 323 322 323 322 323 322 320 320 318 318 318 317 316 321 321 319 319 319 321 318 310 314 312 315
312 315 317 317 313 315 320 326 318 318 322 326 327 324 323 322 322 322 323 322 322 323 323 322 323 322 321 318 315 316 319 319 315 315 317 315 316 317 317 318 313 315 314 317
310 314 317 317 314 316 322 324 321 316 313 319 323 324 322 323 322 322 322 322 322 322 322 323 323 321 320 319 316 319 317 318 317 316 315 316 316 316 315 316 314 313 314 317
309 312 316 319 315 315 320 323 325 317 318 318 323 320 322 322 322 321 322 321 322 322 319 321 321 320 319 320 318 320 318 316 314 316 317 316 315 314 314 314 315 315 315 317
308 310 314 318 318 319 320 323 321 325 325 321 321 320 323 323 321 320 321 321 319 317 320 320 320 319 319 320 319 317 313 308 311 316 315 313 312 315 317 316 316 316 314 316
308 309 312 315 317 319 324 321 322 324 315 318 322 324 323 321 321 320 322 321 318 319 319 319 319 318 317 319 319 314 309 311 307 308 307 311 318 315 315 316 315 315 316 314
308 308 310 315 316 318 320 319 325 322 313 325 323 323 321 321 321 321 321 320 319 318 319 310 310 307 306 309 319 317 315 306 305 310 309 311 314 316 315 315 315 316 314 312
308 308 309 314 315 315 315 318 323 321 323 320 324 322 321 317 318 316 321 320 320 321 315 306 310 312 313 314 317 312 313 305 307 305 307 306 311 316 316 315 312 315 313 312
308 307 309 312 316 315 316 316 319 324 322 322 323 321 320 322 321 314 321 321 321 321 308 311 312 313 315 315 313 308 305 304 305 309 303 308 312 315 315 312 311 315 313 311
308 308 308 310 315 317 319 316 321 322 322 321 322 322 321 321 321 313 321 315 319 312 309 309 309 309 310 311 314 311 308 307 311 309 309 309 313 314 311 312 315 314 312 310
308 308 308 309 311 317 321 318 318 321 321 321 321 322 322 322 322 321 320 316 322 320 309 309 311 309 310 306 309 314 313 311 311 310 309 311 315 315 316 316 314 313 311 310
307 308 308 308 310 314 320 321 317 319 318 318 318 319 319 319 321 321 319 320 321 321 318 314 311 310 310 310 312 313 313 316 309 311 315 316 315 315 315 315 314 311 310 309
307 307 308 308 309 310 314 316 318 321 318 317 322 319 316 317 321 321 321 319 321 320 317 309 307 306 314 308 309 308 312 316 313 311 314 315 315 315 313 313 311 311 310 307
308 308 308 308 308 309 311 314 318 321 320 315 323 320 319 316 316 317 317 320 320 320 316 307 306 312 312 313 308 307 316 312 309 309 315 315 314 313 312 311 310 310 309 305
310 309 309 309 308 308 310 315 313 317 320 320 310 320 319 318 317 321 318 319 318 319 318 313 316 318 315 308 308 314 316 316 315 314 315 315 314 312 311 310 308 305 304 301
311 311 310 310 309 309 314 318 320 316 317 318 315 316 317 319 320 321 321 320 320 320 319 317 317 318 317 306 312 313 314 313 313 313 314 312 311 310 309 306 305 303 300 297
310 311 311 311 311 313 316 317 317 318 318 318 309 310 314 318 319 318 318 319 319 318 317 316 314 316 315 307 312 314 314 314 314 313 312 310 309 309 307 304 301 299 297 297
309 310 310 311 311 313 314 315 316 316 318 317 313 309 310 315 314 314 314 314 309 314 312 314 314 307 312 311 314 314 313 312 311 310 309 309 308 304 301 300 298 297 297 296
310 310 310 310 311 313 313 314 314 315 316 316 312 312 309 313 311 309 309 309 306 310 307 310 305 308 312 313 313 312 312 311 310 309 307 305 303 301 299 298 297 297 296 295
310 311 311 312 312 313 313 313 311 311 308 313 313 313 308 311 307 306 309 304 304 309 305 307 306 306 307 309 310 311 310 310 309 308 305 303 300 298 297 297 296 295 292 291
310 311 310 312 311 312 309 307 308 306 309 309 310 310 310 310 310 306 305 306 303 308 305 306 306 303 309 310 309 308 307 306 305 303 300 298 297 297 296 294 292 291 291 291
308 307 308 306 302 304 307 308 306 306 304 305 306 303 306 307 307 303 302 306 306 304 305 306 301 307 307 307 306 304 303 300 298 297 297 296 295 294 292 291 290 290 291 292
305 303 303 302 303 302 301 301 301 301 302 303 304 302 304 303 303 300 305 302 302 305 304 300 303 306 306 306 305 303 300 299 297 296 295 294 293 292 290 291 291 291 291 291
301 301 303 301 299 299 299 299 300 301 302 302 301 301 301 300 301 300 301 302 304 304 305 301 301 303 303 303 302 301 300 299 297 295 294 293 291 291 291 291 291 291 291 291
300 299 299 298 300 299 299 300 300 300 300 300 301 300 303 302 301 302 304 304 304 303 300 299 300 300 302 302 300 298 296 295 295 295 294 292 291 291 291 291 291 292 293 292
299 298 297 298 299 299 300 300 300 301 301 300 301 303 301 299 302 303 302 303 301 301 301 300 299 298 296 295 294 294 294 294 294 293 292 291 291 291 291 292 292 293 294 294

GFSNW_850_thetae_006.txt.gz
Theta_e
314 315 314 314 313 314 315 319 316 321 320 312 317 320 324 320 319 321 321 322 322 320 321 323 321 321 320 320 320 316 316 313 312 318 317 318 318 319 315 312 319 310 309 313
314 315 316 315 313 314 318 322 325 324 318 307 306 321 322 320 319 320 321 321 321 321 321 322 322 320 318 315 316 318 316 313 313 318 319 316 318 318 319 313 307 313 309 310
314 316 317 314 313 314 318 323 315 319 320 321 320 322 321 321 321 321 321 321 321 320 321 320 321 321 319 314 314 316 317 317 313 316 316 314 315 315 317 314 310 313 311 314
313 316 318 315 313 314 321 324 316 315 309 314 321 322 321 321 321 321 321 320 321 320 321 322 321 320 319 317 316 317 315 315 315 314 314 315 315 314 314 315 314 314 313 314
312 315 318 315 313 315 320 323 321 314 312 314 320 319 321 321 321 320 321 320 321 319 317 319 320 318 317 318 317 318 313 312 311 315 316 315 314 313 313 313 313 313 315 315
310 313 317 316 313 315 319 322 323 315 319 314 317 316 320 321 320 320 320 319 317 316 319 318 318 319 319 318 317 313 310 306 306 311 310 310 309 313 316 315 314 314 312 313
309 312 316 318 315 314 321 323 324 322 312 313 316 322 321 319 319 320 319 319 316 318 318 318 317 317 318 317 313 311 308 309 302 304 302 306 315 313 314 316 316 313 312 310
308 310 315 317 317 318 322 321 325 322 307 317 321 320 320 320 320 319 320 318 319 316 313 306 308 305 308 308 314 315 309 301 305 304 306 306 311 314 314 313 316 313 312 311
308 309 314 315 317 320 318 317 324 321 319 317 323 319 319 313 314 313 320 317 320 317 306 304 308 307 309 313 316 310 308 301 304 306 302 302 307 314 315 313 312 313 312 311
307 309 312 315 315 314 314 320 321 322 322 322 321 319 319 320 316 311 319 320 320 317 299 305 310 312 312 313 311 307 303 300 304 303 299 305 307 312 314 312 309 313 313 312
307 308 310 315 315 316 316 317 320 322 321 322 322 321 321 320 319 312 319 315 317 307 304 301 308 308 308 309 311 309 308 306 304 301 302 309 310 313 311 310 315 315 314 312
308 308 309 312 316 319 316 319 322 320 319 321 321 321 321 320 319 318 319 314 317 316 307 307 311 308 308 302 309 311 311 307 308 309 309 309 312 314 314 314 315 314 313 311
308 308 308 310 314 317 319 317 320 318 319 319 320 320 322 322 320 319 318 319 319 318 315 309 308 304 306 310 310 310 311 312 308 310 313 312 314 314 315 315 315 314 313 310
308 308 308 308 310 315 319 318 318 318 317 314 320 319 318 321 321 321 320 318 320 320 316 309 306 302 310 304 306 306 309 313 311 308 312 314 315 315 315 314 313 312 311 310
308 308 308 308 309 311 313 316 317 319 317 314 320 319 318 316 320 321 320 319 320 319 315 304 305 308 308 307 303 305 313 311 309 311 313 313 313 315 314 313 312 311 311 308
308 308 308 308 308 309 310 311 314 317 319 317 309 319 319 318 318 317 317 320 320 319 318 312 313 317 313 308 313 313 315 315 315 314 315 314 314 314 313 311 310 309 310 303
309 309 308 308 308 308 310 313 316 315 318 317 314 313 318 319 320 321 320 319 319 319 318 316 315 317 316 306 307 312 314 313 313 314 313 314 313 312 311 309 305 303 301 299
311 310 310 310 310 311 313 316 318 316 317 317 306 306 314 317 319 319 318 319 319 317 317 316 314 314 310 308 311 315 315 315 315 313 314 314 313 309 309 303 301 299 297 297
310 311 311 311 311 311 314 316 316 317 317 316 309 307 309 315 314 315 314 315 306 312 311 311 312 306 312 311 314 314 314 314 314 313 312 310 309 306 303 302 301 299 297 297
309 310 310 311 312 313 313 314 314 314 316 316 310 310 309 313 310 308 310 309 305 310 308 311 305 308 312 313 313 313 313 312 312 311 309 308 306 304 300 298 297 297 296 295
309 310 311 311 313 312 313 311 310 311 309 313 312 311 308 310 307 306 309 304 303 309 304 308 304 306 305 308 309 311 311 311 310 309 307 305 301 300 297 299 297 295 295 293
310 311 311 312 312 312 307 307 306 306 308 307 309 309 310 310 310 307 305 306 303 308 304 306 307 302 307 308 308 307 308 308 304 305 303 298 298 299 297 295 295 294 291 290
309 309 309 308 304 306 311 312 307 306 303 305 307 306 308 308 308 304 302 306 306 304 306 307 303 306 302 299 300 301 304 305 302 298 301 298 294 294 295 293 291 291 291 291
307 304 303 303 302 302 301 302 301 301 302 303 303 302 304 303 303 301 305 302 301 306 305 300 301 302 300 303 302 300 298 301 302 296 295 294 294 292 291 291 291 291 291 291
301 301 302 299 297 298 298 299 300 300 301 302 302 301 302 300 301 300 300 302 303 303 303 300 300 300 301 300 297 297 297 297 297 295 295 294 293 291 291 291 291 291 291 292
299 298 298 298 299 299 299 299 299 300 300 300 301 300 302 301 300 300 302 302 303 302 300 301 301 301 299 300 298 298 297 295 294 294 295 294 292 291 291 291 291 292 292 293
298 297 298 299 299 298 299 299 299 300 300 300 300 299 299 298 300 302 302 302 301 301 301 301 300 299 298 296 295 295 294 294 294 293 292 291 292 292 291 292 292 293 293 293

GFSNW_850_thetae_009.txt.gz
Theta_e
313 313 313 313 313 315 314 316 310 319 316 313 313 316 320 322 318 320 321 320 319 318 320 321 320 320 319 317 319 316 316 312 312 317 315 316 316 317 313 309 317 308 307 313
313 314 314 313 313 314 316 317 325 325 319 308 304 315 322 319 318 319 320 320 320 319 320 320 320 319 317 314 315 317 315 312 313 318 317 314 318 317 314 310 307 314 307 309
314 315 314 314 313 314 317 319 315 322 320 313 311 317 319 320 320 320 320 319 319 319 320 318 320 320 318 314 315 316 316 314 312 315 316 313 314 315 315 312 309 311 309 312
314 315 315 314 313 314 319 321 313 318 310 314 320 319 319 320 320 320 319 319 320 319 321 320 320 319 317 315 316 316 312 313 314 313 313 314 314 314 314 315 313 313 313 312
314 316 317 315 313 315 321 323 316 313 310 315 318 317 321 319 320 319 320 318 320 318 316 317 319 316 315 316 317 316 309 311 309 315 313 313 313 311 310 311 312 313 314 315
314 316 318 314 313 316 320 322 323 314 312 312 315 314 319 319 318 319 319 318 316 315 317 317 317 316 316 316 316 311 307 305 304 306 308 309 306 310 313 313 314 312 313 312
312 316 317 314 313 314 318 322 323 320 309 308 312 319 319 319 318 319 318 318 315 315 317 317 317 317 316 315 313 310 307 304 299 303 301 304 309 310 312 313 314 312 311 310
311 315 317 314 313 315 319 322 324 321 307 313 318 319 318 318 319 318 318 318 317 316 314 307 310 305 307 307 312 310 307 301 305 302 304 305 309 313 314 313 313 311 310 309
311 316 317 316 314 315 320 321 323 319 320 316 320 318 318 311 313 312 318 316 316 316 303 303 305 307 309 312 316 309 305 299 302 303 300 301 305 312 313 312 310 313 311 309
311 316 316 317 317 317 320 320 322 320 321 322 320 317 317 317 314 310 318 319 318 314 298 300 308 310 308 312 310 306 303 298 300 298 298 304 304 312 312 312 309 313 313 312
310 315 316 316 317 318 316 321 320 321 321 322 321 320 320 319 318 312 318 315 316 305 303 301 303 304 307 308 309 309 309 306 302 303 302 308 308 310 311 311 311 314 314 313
309 312 316 317 317 316 316 318 321 321 321 320 321 321 320 319 319 319 319 316 315 314 304 301 304 306 306 302 309 309 309 306 307 307 308 308 310 313 314 313 313 314 314 313
308 310 313 317 318 316 316 320 320 318 320 319 320 321 321 319 319 319 318 315 317 315 313 309 303 303 301 307 308 308 309 309 306 309 311 310 311 312 312 314 314 314 315 314
307 308 310 314 318 319 317 319 318 317 317 316 319 320 321 321 320 319 318 317 317 316 314 308 303 301 307 302 305 305 308 310 310 307 309 312 315 315 314 314 315 315 314 313
308 308 308 310 314 318 318 317 317 316 315 314 319 318 317 320 321 321 321 319 318 318 314 304 304 306 305 304 302 305 310 309 307 308 311 313 313 314 314 314 314 314 312 310
308 308 308 308 310 312 314 314 318 318 316 316 310 317 318 317 317 319 320 320 320 319 318 313 312 311 311 307 311 312 314 313 313 312 313 313 313 314 314 314 314 312 311 310
308 308 308 308 308 309 310 311 314 317 318 316 312 312 318 318 319 318 319 319 319 319 317 313 313 315 313 305 309 313 313 313 313 313 314 314 314 314 314 313 312 310 309 303
309 308 308 308 308 309 312 315 314 316 316 316 306 305 314 317 319 319 318 319 318 317 315 312 311 311 307 308 311 315 315 315 314 314 314 313 313 313 312 311 309 304 300 299
310 310 310 310 310 311 313 315 317 316 315 314 307 307 309 315 313 314 314 315 306 310 311 309 311 304 310 311 313 314 314 314 314 313 313 313 313 310 304 300 299 303 297 298
310 311 310 311 312 312 314 314 313 315 316 315 306 308 308 311 310 308 309 308 308 310 308 311 305 309 310 312 310 310 311 313 313 312 309 308 302 298 297 300 300 298 297 298
310 310 310 312 313 312 312 311 307 309 310 311 309 309 307 309 307 307 308 304 302 309 305 309 308 306 304 306 307 309 310 311 310 310 308 303 302 302 300 297 299 300 296 292
310 311 311 312 312 311 305 305 306 305 307 307 309 309 310 309 310 307 306 306 303 308 304 306 307 300 299 300 301 302 303 305 303 303 302 300 298 298 299 298 293 291 290 290
310 311 311 310 306 307 310 311 306 306 303 304 306 306 307 308 309 305 303 306 307 303 305 307 303 299 299 300 302 302 303 302 301 299 298 298 295 293 292 291 291 291 291 290
308 306 304 303 303 301 301 302 301 300 301 303 304 302 304 303 303 301 305 302 301 306 303 299 301 299 300 301 301 300 300 301 297 293 293 293 293 292 291 291 291 290 290 290
302 301 300 298 297 298 298 299 300 300 300 302 302 302 302 300 301 300 300 302 303 301 300 300 299 299 299 297 296 297 295 295 294 294 294 294 293 291 291 291 291 291 291 291
298 298 298 298 299 298 299 299 299 300 300 300 301 300 301 301 300 299 298 299 300 301 299 299 299 299 299 298 296 298 295 295 295 295 294 292 291 291 291 291 291 292 292 292
298 297 298 299 299 299 299 300 300 300 300 300 300 298 297 298 298 300 301 301 300 300 300 300 300 299 297 296 295 294 294 293 292 292 292 292 292 292 292 292 291 291 291 291

GFSNW_850_thetae_012.txt.gz
Theta_e
312 313 313 313 313 313 315 319 310 319 316 312 310 313 319 321 317 319 320 317 317 316 319 319 319 318 318 316 318 316 314 312 312 316 315 315 315 316 311 308 313 307 305 310
312 313 313 313 313 313 315 316 323 322 316 307 304 312 319 320 317 319 319 320 318 318 319 319 319 318 316 313 315 315 313 312 314 316 314 313 317 316 311 308 307 313 309 310
312 312 313 314 313 314 317 317 317 324 320 310 310 315 317 319 319 319 319 318 318 318 319 317 319 319 316 314 315 315 313 311 312 313 314 312 314 316 312 311 308 310 309 310
312 313 314 314 313 314 318 317 315 319 311 312 312 313 318 319 319 319 318 318 318 318 320 319 319 318 316 314 315 315 310 313 313 313 312 313 313 313 313 313 311 312 311 309
312 313 314 314 313 314 320 320 315 314 312 317 317 315 318 318 319 318 319 318 318 317 315 316 317 315 313 312 315 313 307 309 308 315 311 310 313 311 310 311 311 311 312 311
313 314 315 314 313 315 321 322 319 318 308 311 314 313 319 318 317 318 317 317 315 316 317 316 315 314 313 314 314 309 305 304 304 304 306 305 306 308 309 309 309 309 312 310
313 315 316 314 313 315 319 321 321 316 305 305 312 316 318 318 317 317 317 317 314 315 316 316 316 315 314 313 311 308 303 302 298 303 300 303 308 308 309 311 312 310 311 310
313 316 317 315 313 315 318 321 322 318 303 308 314 317 316 317 318 317 317 317 316 315 314 307 311 306 307 306 309 306 304 300 302 303 302 304 307 311 312 312 311 310 310 309
313 316 317 314 313 315 317 320 322 321 312 311 316 317 316 309 311 310 317 314 314 314 301 302 307 310 311 311 315 308 303 298 301 298 300 301 305 308 312 311 311 311 310 308
315 316 316 313 312 314 317 320 320 320 321 320 319 316 316 316 313 308 317 315 316 312 297 299 303 306 307 311 310 306 304 300 299 298 297 302 303 311 312 312 310 311 312 312
316 316 316 313 313 315 318 320 321 320 321 321 319 318 318 317 317 311 317 313 315 304 304 301 302 300 306 307 308 309 309 305 301 299 298 306 306 311 311 311 310 312 313 313
317 317 317 316 315 317 318 320 322 321 321 320 320 320 319 318 318 318 318 316 315 313 303 296 301 306 305 301 308 307 309 306 305 304 306 306 308 310 313 312 311 312 313 314
316 318 320 318 318 317 317 320 320 320 320 319 321 321 319 319 318 319 318 314 316 314 311 304 302 302 299 305 306 306 307 306 304 307 309 308 310 311 312 312 313 313 313 314
312 316 320 321 318 319 317 319 319 320 319 316 318 320 321 319 318 318 318 318 315 314 313 308 302 301 305 299 304 303 307 308 308 306 308 310 312 312 313 314 313 313 313 314
309 312 317 320 319 319 321 318 316 317 314 314 318 318 320 321 321 320 320 319 316 315 313 301 304 304 303 303 302 304 308 308 306 307 311 309 310 311 312 314 314 314 314 314
308 309 312 318 318 318 317 317 317 315 314 317 310 316 317 318 319 320 319 318 318 318 317 313 311 310 309 307 305 311 312 312 312 311 312 312 312 313 313 314 314 314 313 312
308 308 308 310 312 314 312 312 317 316 315 314 311 310 317 318 318 318 319 319 319 318 316 312 310 312 310 306 304 313 313 313 313 313 312 312 313 313 313 313 313 312 311 308
308 308 308 308 309 309 311 313 317 318 315 314 304 304 314 316 318 318 317 318 318 315 312 309 307 308 307 309 309 312 313 314 314 314 313 313 312 312 312 311 311 307 300 297
308 308 308 308 309 309 314 315 315 316 313 312 305 306 308 314 312 313 313 313 306 309 309 308 309 304 309 308 307 307 309 310 311 312 312 312 311 307 304 304 300 300 298 299
310 309 310 311 311 312 313 313 314 316 315 315 303 305 308 310 311 308 309 308 308 310 307 309 306 308 306 301 302 305 307 309 310 310 306 304 300 299 298 299 300 299 297 299
310 310 310 312 313 312 311 309 307 308 309 309 307 307 305 308 307 306 307 304 303 309 304 308 307 306 299 299 301 302 304 305 306 306 302 300 299 299 299 297 297 299 297 294
310 311 312 311 311 310 304 303 304 305 304 307 308 308 309 308 309 306 306 306 303 309 304 306 307 299 297 299 300 300 300 300 299 299 298 298 297 296 296 296 295 292 291 290
311 311 310 309 306 308 307 308 306 306 303 305 306 305 307 308 308 305 303 307 307 303 305 307 302 299 299 299 299 299 299 299 298 295 294 294 294 294 294 292 291 291 290 290
309 307 305 304 304 301 300 301 301 300 301 303 305 303 305 304 304 301 306 302 301 306 305 301 300 298 298 299 299 299 295 294 294 294 294 294 293 292 291 291 290 290 291 291
303 302 301 299 297 298 298 299 300 300 301 302 303 302 303 301 301 300 300 300 299 296 294 299 298 298 297 296 295 295 294 294 294 295 295 294 292 291 291 291 291 291 291 291
298 298 298 298 299 298 299 299 299 301 301 302 302 300 301 301 300 298 298 298 296 299 299 298 298 298 297 296 296 295 295 295 295 294 292 292 292 292 292 292 292 291 291 291
297 297 298 298 299 299 299 300 300 300 300 300 299 297 298 298 295 297 298 295 298 299 298 299 299 298 297 295 295 294 293 293 293 293 293 293 293 293 292 291 291 291 291 290

GFSNW_850_thetae_015.txt.gz
Theta_e
310 310 313 313 312 313 312 318 313 320 317 312 309 314 316 321 319 318 318 316 316 317 318 319 319 319 317 315 317 318 314 316 319 317 315 315 316 316 315 318 314 312 314 317
309 312 313 313 313 313 313 318 322 323 315 311 309 311 318 320 317 317 318 319 317 318 319 320 319 318 314 313 314 317 314 317 320 319 316 315 317 316 312 311 312 316 324 316
309 312 313 312 313 312 316 318 319 323 315 311 311 314 316 319 318 318 317 317 317 319 319 317 319 318 315 314 315 314 313 313 316 320 315 314 316 316 312 314 317 314 317 316
310 311 313 312 313 312 317 317 316 320 314 310 310 311 315 318 319 318 317 318 317 318 320 319 318 317 315 315 315 313 313 316 313 313 312 313 313 314 313 314 314 318 315 313
310 312 312 313 313 312 318 316 315 314 312 312 312 311 318 318 317 318 318 319 317 317 318 317 319 316 314 314 315 313 308 313 310 315 312 311 313 312 312 313 313 312 312 314
309 312 312 313 313 312 318 319 317 315 307 312 313 313 315 317 317 317 316 317 316 317 317 315 313 312 312 313 315 310 309 309 309 311 307 308 312 311 312 311 311 314 315 315
311 312 313 313 313 313 318 319 316 314 307 309 312 315 317 317 316 318 316 316 316 315 315 315 314 313 312 311 308 307 306 305 303 311 305 313 312 310 310 311 311 310 311 312
311 312 314 314 313 313 319 320 317 316 305 309 312 315 316 316 317 316 316 316 315 315 313 312 313 311 311 309 308 306 304 306 306 314 310 308 310 308 312 314 314 312 312 311
312 313 314 314 313 314 319 319 320 319 310 310 315 316 316 313 313 313 314 313 313 312 303 308 314 317 314 312 314 308 305 302 310 306 311 311 310 306 312 311 317 311 312 310
313 314 315 315 313 315 319 320 320 321 315 313 316 316 316 315 313 313 312 313 313 310 305 309 312 313 308 312 312 310 310 306 309 302 312 309 306 309 311 315 315 309 312 312
313 316 317 315 313 315 318 318 320 321 320 317 318 317 317 315 317 315 314 315 314 306 310 311 309 311 310 310 309 311 312 311 310 302 308 313 305 311 315 314 311 310 313 313
315 316 317 315 313 315 316 317 319 321 320 319 319 318 318 318 318 318 315 316 313 312 309 303 304 309 306 305 315 308 313 311 312 309 312 307 307 311 312 312 311 311 312 312
316 316 315 313 313 316 317 317 319 320 320 318 320 319 318 318 318 318 317 314 316 313 311 304 304 309 305 311 310 309 308 305 309 309 309 307 308 310 310 310 311 311 312 312
319 318 314 313 314 317 317 317 320 320 320 316 318 320 319 318 318 318 318 319 316 314 311 307 304 308 304 306 308 309 309 307 309 308 309 309 311 311 310 311 312 312 313 313
318 318 316 315 317 316 316 316 319 318 317 314 318 319 319 320 319 318 318 317 316 313 311 306 308 303 305 302 304 307 308 310 312 314 311 310 310 311 311 312 313 313 313 313
317 318 318 318 318 317 319 317 316 314 319 319 311 316 318 319 319 319 317 316 316 316 316 310 307 307 308 309 311 311 310 311 311 311 310 310 311 312 312 313 313 313 312 312
316 318 318 318 319 318 316 316 316 314 314 314 310 310 316 318 318 318 318 318 318 317 314 308 307 308 308 306 311 310 310 311 313 312 311 312 312 311 312 312 312 311 309 307
309 312 314 314 313 311 315 318 316 315 314 313 306 306 314 316 316 315 315 317 316 313 309 306 305 306 307 311 308 305 307 309 312 311 311 311 310 309 308 306 305 303 298 296
308 309 308 309 310 311 316 317 316 314 312 310 305 308 311 312 310 309 311 311 308 309 310 308 309 305 307 301 300 301 303 304 307 306 307 306 304 300 299 299 298 298 298 297
309 308 309 309 313 313 313 311 312 312 313 314 303 304 306 310 310 307 309 309 307 310 308 309 307 307 298 298 299 300 302 305 308 304 299 299 297 297 298 297 297 296 296 295
309 309 311 313 313 310 310 308 306 307 305 307 306 306 306 307 309 307 307 306 304 310 308 309 308 305 297 298 298 299 300 301 301 301 299 298 298 297 296 296 295 295 295 294
310 312 312 311 311 310 305 304 305 303 306 306 307 307 307 306 308 307 305 306 304 310 304 307 308 298 298 298 298 298 298 298 298 298 298 297 296 295 295 295 294 293 292 290
311 311 310 309 305 305 303 309 307 305 303 305 306 304 307 306 307 304 304 308 308 303 306 307 302 299 298 298 298 298 298 297 297 295 295 294 294 294 292 291 290 290 290 290
309 307 304 301 306 302 302 303 302 300 302 304 305 303 305 304 304 301 308 302 302 307 307 305 300 298 298 298 297 297 295 294 294 293 293 293 291 291 291 291 291 291 291 291
304 302 300 299 297 298 298 299 300 300 301 304 304 303 304 301 303 301 302 302 304 302 301 300 297 297 297 297 297 294 293 293 295 294 295 292 291 292 292 292 292 291 291 291
298 298 299 298 299 298 299 300 299 300 301 302 303 300 303 302 302 303 303 301 299 300 299 298 297 297 296 296 295 295 295 294 294 292 292 292 293 292 292 291 291 291 291 290
297 297 298 298 299 299 299 300 299 300 300 300 299 302 301 298 300 300 299 298 298 298 298 298 297 297 297 296 296 294 293 293 293 293 293 293 292 291 291 290 290 289 288 287

GFSNW_850_thetae_018.txt.gz
Theta_e
306 312 316 310 310 313 312 316 319 317 317 322 320 321 319 322 323 320 320 320 321 321 321 322 321 321 321 319 320 322 320 323 325 323 319 319 320 322 319 319 319 320 322 318
306 312 316 310 311 312 312 316 321 323 321 323 323 318 319 322 321 321 322 321 321 322 323 324 323 322 316 316 319 322 320 323 324 322 321 320 321 321 319 319 320 320 327 317
306 310 314 309 311 312 314 317 325 322 316 316 319 319 320 320 320 321 321 322 322 323 323 322 324 322 317 317 318 313 315 322 323 325 321 320 321 321 319 319 320 318 319 316
305 312 313 310 312 312 316 319 321 321 324 318 319 319 319 320 322 320 320 322 323 324 324 323 324 322 318 318 316 318 320 322 319 317 317 317 318 319 319 318 319 319 317 317
309 313 311 311 312 313 317 319 320 318 319 315 317 316 319 319 321 322 322 324 323 323 324 323 324 322 320 321 319 320 316 322 317 319 317 316 317 318 318 319 319 318 318 318
307 312 309 311 312 312 317 318 316 318 313 317 318 317 319 319 322 320 320 323 323 324 322 320 320 317 318 318 321 320 319 318 317 318 314 315 319 317 317 317 318 318 319 318
308 312 309 311 312 313 318 318 316 318 320 318 317 316 318 322 322 323 319 320 323 318 316 316 316 316 316 315 313 314 314 315 314 319 312 326 315 314 314 316 316 316 316 316
312 310 309 312 313 313 317 318 316 316 320 318 316 316 317 320 320 321 320 318 317 316 317 322 321 322 321 318 313 312 312 315 316 325 317 315 313 312 312 315 315 316 316 316
309 308 311 312 313 313 318 319 316 316 318 318 316 317 319 323 324 322 316 314 314 312 318 322 325 325 321 319 319 313 311 311 318 315 329 329 315 312 314 315 317 314 315 317
308 310 312 313 313 314 318 319 318 316 319 317 317 318 320 321 322 324 316 315 315 312 320 330 327 324 315 318 318 318 318 316 322 317 324 317 313 311 314 316 315 315 315 316
310 311 312 314 313 315 319 319 319 319 321 318 316 317 318 318 321 325 317 319 317 316 325 328 322 325 317 316 315 317 319 320 320 314 323 322 310 314 318 317 316 314 314 316
311 312 314 314 313 317 319 319 319 320 321 320 317 316 317 318 320 320 317 322 319 320 323 319 318 318 312 319 323 313 318 318 319 316 318 313 311 314 315 313 313 314 314 314
312 314 315 314 313 317 318 319 318 319 319 319 320 320 317 317 318 318 320 317 318 316 317 316 318 320 317 320 320 317 314 311 316 314 315 313 312 311 311 311 312 312 313 313
315 316 316 315 313 316 317 317 317 319 320 319 320 318 318 317 318 318 318 319 317 315 313 316 313 321 312 318 316 318 315 312 315 315 314 313 313 313 312 312 313 313 314 314
316 317 316 314 313 315 318 316 318 319 318 319 320 318 318 318 318 317 317 317 316 315 315 314 322 312 314 309 312 316 312 315 317 318 314 314 314 312 312 313 313 313 313 314
317 315 315 314 314 318 315 316 317 318 318 320 323 316 316 316 316 316 315 314 314 315 318 314 311 308 315 316 319 314 312 312 312 313 312 312 313 313 311 311 308 307 307 305
317 314 313 315 317 317 315 317 317 316 317 317 317 318 317 316 316 317 317 317 316 318 314 310 311 312 314 312 320 311 308 308 310 311 312 314 307 307 304 304 302 303 300 299
318 317 316 317 317 315 315 316 315 314 313 313 318 315 316 316 314 312 315 315 316 312 309 307 310 308 311 317 309 306 305 306 310 305 308 305 303 302 301 301 301 299 298 298
314 314 314 315 316 315 315 314 313 312 312 316 315 319 318 312 310 310 311 312 313 309 313 312 312 310 315 304 302 303 302 303 304 302 302 302 301 300 299 299 298 297 297 296
310 310 310 310 314 316 314 312 311 311 312 311 306 307 311 311 310 308 311 310 312 313 311 309 313 307 300 299 299 300 301 302 303 302 300 300 299 298 297 297 296 296 296 296
309 310 313 313 311 310 310 309 311 311 312 307 306 307 309 307 313 311 307 311 310 313 312 313 313 307 300 299 299 301 302 301 301 301 299 298 298 297 296 296 296 295 295 294
311 312 311 310 310 310 309 308 308 311 310 305 308 306 307 307 309 310 307 311 307 313 307 311 312 302 298 298 298 299 299 299 298 298 298 297 297 296 296 294 292 290 290 290
311 311 310 309 306 310 315 310 310 308 304 305 306 306 306 306 307 306 309 312 312 306 309 310 306 299 298 298 297 298 298 297 296 295 295 294 292 291 291 291 291 291 291 291
310 307 307 308 309 305 305 305 304 300 302 305 306 303 306 305 307 306 314 303 304 309 310 309 301 298 298 297 297 296 294 293 293 294 293 292 291 291 291 291 291 291 291 291
302 302 303 302 297 298 298 299 300 300 302 304 305 305 306 305 306 304 304 307 309 308 308 302 298 298 298 297 296 294 294 294 295 294 293 292 292 292 291 291 291 291 290 290
299 298 301 298 300 299 299 300 299 301 302 303 304 302 305 305 307 307 310 309 308 305 302 298 298 297 297 297 294 294 295 295 294 292 292 293 292 292 291 291 290 289 287 286
298 298 298 299 299 298 298 299 299 300 301 301 301 307 305 302 305 305 304 305 303 299 298 298 297 297 297 296 296 295 294 293 293 293 293 292 291 291 290 289 288 286 285 284

GFSNW_850_thetae_021.txt.gz
Theta_e
301 303 303 309 314 312 310 316 319 322 314 319 323 324 322 319 322 323 321 321 319 320 320 321 320 319 320 322 322 322 321 321 323 323 323 322 323 323 323 323 321 321 325 320
300 303 303 308 313 311 312 318 319 324 320 325 331 323 321 320 323 322 322 320 320 320 320 320 320 320 321 321 323 322 324 321 323 323 324 322 321 321 322 321 322 320 326 320
300 303 304 307 312 311 314 318 324 323 322 321 324 324 321 321 322 322 321 320 322 323 323 323 324 324 321 320 321 316 319 322 322 324 323 323 324 322 321 322 323 321 321 319
299 302 304 306 312 310 315 318 320 321 325 325 325 322 321 320 322 322 322 324 322 322 323 324 325 325 322 321 318 319 322 323 322 322 322 320 321 320 321 321 320 323 320 318
299 301 304 307 312 310 315 318 320 319 322 321 322 319 321 320 322 323 324 323 322 322 323 324 323 325 324 324 322 323 321 323 322 323 321 320 320 320 319 319 319 319 319 319
300 300 304 308 310 310 315 320 318 320 323 325 322 324 321 320 323 324 323 323 324 324 325 324 324 323 323 323 325 324 323 324 320 319 318 319 321 320 320 319 319 319 320 319
300 301 301 308 311 311 316 320 320 321 326 325 322 320 320 320 323 324 323 323 325 323 320 320 320 320 319 319 320 321 322 321 320 320 316 323 316 317 316 317 317 318 318 317
301 301 304 307 310 311 316 321 320 320 328 321 319 318 319 319 323 324 323 322 322 320 322 323 323 324 323 320 317 316 317 319 320 326 318 317 316 315 315 316 316 317 317 316
301 304 306 311 310 313 316 324 321 319 323 322 317 318 317 325 326 325 320 320 320 319 325 326 324 324 322 323 322 316 315 317 320 318 326 326 319 315 316 316 316 315 314 315
303 304 304 311 311 313 317 324 318 318 316 317 317 318 318 319 324 326 321 319 319 318 326 330 327 324 321 321 321 320 320 321 324 321 324 320 316 314 316 316 319 316 315 315
306 306 310 310 312 313 317 324 316 318 318 319 319 318 318 318 320 327 322 322 321 322 326 330 327 329 323 321 320 321 321 323 324 322 323 323 313 316 317 319 315 315 315 315
311 309 309 311 313 314 319 323 317 320 321 323 322 321 320 320 321 323 321 323 323 323 326 327 328 324 317 324 324 318 322 321 322 319 320 316 314 314 314 315 315 314 314 314
308 310 311 312 312 314 318 322 319 318 324 322 320 321 317 319 321 323 323 324 323 323 325 325 327 324 323 323 324 322 319 316 318 317 316 315 314 314 314 314 314 315 315 315
310 311 312 313 313 314 320 323 319 321 322 324 323 320 320 317 318 319 324 323 321 321 322 324 319 325 320 325 322 321 318 316 317 317 316 315 315 315 315 315 315 316 316 316
311 312 313 313 313 315 319 319 318 319 321 322 322 319 318 318 318 319 318 320 319 320 322 318 326 319 320 318 318 320 316 316 319 319 317 316 316 315 315 316 315 314 314 315
312 313 314 314 314 315 318 317 318 318 320 323 324 319 318 319 319 319 320 321 321 322 323 322 318 316 320 321 321 317 315 315 314 316 315 316 315 311 310 308 307 306 306 304
315 315 315 313 314 315 318 317 317 317 318 319 321 321 317 317 319 318 320 321 321 322 321 317 320 317 319 318 321 316 312 311 313 311 313 316 310 309 307 306 305 302 301 299
316 316 316 314 314 316 317 316 316 317 317 321 322 318 319 317 318 318 317 319 321 317 314 314 317 314 318 321 314 311 309 310 310 308 309 308 307 306 304 303 301 299 298 297
315 315 314 314 317 315 314 315 315 316 314 320 320 318 321 314 312 313 315 317 318 313 314 316 317 313 318 311 309 308 307 308 308 307 306 306 304 301 300 300 299 298 297 297
315 316 316 316 316 314 314 313 313 314 314 313 311 313 315 315 312 311 314 313 315 316 313 312 315 314 304 304 304 304 305 307 306 305 304 301 300 300 299 299 299 299 299 299
312 312 313 314 315 314 312 313 316 316 317 310 309 310 313 311 316 311 309 313 313 315 315 314 315 313 305 302 302 302 303 304 304 303 300 300 300 299 299 298 297 295 292 290
311 312 311 312 311 313 315 311 310 314 313 306 309 308 309 308 312 311 310 310 310 315 310 315 314 305 301 299 300 300 301 301 300 300 299 299 298 297 295 292 291 291 291 291
310 311 310 312 308 315 313 310 312 311 305 305 307 308 308 308 309 309 311 313 315 310 313 312 308 301 299 298 301 300 300 299 298 297 295 294 292 291 291 291 291 291 291 291
310 308 309 309 313 306 305 306 305 301 302 306 307 306 308 307 308 310 310 305 309 312 313 312 302 299 298 299 299 299 297 295 295 295 292 291 291 291 291 291 291 291 290 290
303 304 305 303 298 298 299 299 300 301 302 305 308 308 309 308 309 308 308 308 311 312 312 305 299 298 298 298 298 296 294 295 296 295 292 292 292 292 291 291 290 290 289 288
299 299 301 299 301 300 299 299 299 301 303 305 305 307 310 307 309 311 313 313 312 308 304 299 299 298 298 298 296 296 297 296 295 293 292 292 292 292 291 290 289 288 287 286
299 298 298 299 298 297 297 298 299 301 302 302 304 310 307 304 309 308 308 308 305 299 298 298 299 298 297 297 296 295 295 295 293 292 292 293 292 291 290 288 288 286 285 284

GFSNW_850_thetae_024.txt.gz
Theta_e
303 302 302 303 306 310 315 313 316 317 315 317 317 325 322 321 322 320 322 321 319 320 321 320 319 319 321 321 321 322 321 321 327 321 322 323 322 324 322 333 325 330 330 324
302 302 302 302 305 310 313 313 317 319 316 318 323 323 322 321 322 322 323 322 321 320 321 321 320 320 323 323 323 322 323 322 325 322 323 323 322 321 320 323 327 328 331 325
301 301 302 302 304 310 312 314 320 323 320 315 321 324 322 321 321 321 321 322 321 321 320 321 321 322 323 322 323 319 322 322 321 326 322 324 325 322 321 321 330 327 324 320
301 301 301 303 304 308 312 315 320 321 324 323 322 325 322 321 322 320 322 322 320 322 323 322 323 323 324 322 321 320 322 323 322 321 321 322 323 322 321 321 322 323 323 320
301 301 301 302 304 307 312 316 319 321 321 320 322 324 325 322 321 322 323 323 321 323 323 323 323 323 326 324 323 323 322 325 324 325 323 322 321 321 321 319 319 320 319 320
301 300 300 301 304 307 311 315 319 321 321 322 324 326 325 323 322 322 321 322 323 323 324 324 325 325 325 324 326 326 326 329 326 323 319 319 319 321 319 319 319 319 320 321
300 299 300 302 304 305 310 314 320 321 323 322 324 324 324 321 322 325 323 323 325 325 323 323 322 322 322 323 323 324 326 326 326 327 317 322 317 318 317 317 317 317 316 318
299 299 299 302 303 305 311 315 318 321 321 323 322 324 324 321 320 324 324 325 325 323 323 326 325 328 322 321 319 319 322 325 325 327 322 319 317 317 316 316 317 317 316 316
299 299 299 300 304 307 310 314 317 321 323 325 321 322 322 324 328 326 322 323 323 323 330 332 327 329 323 324 322 317 317 322 327 322 328 327 321 317 316 316 319 316 316 316
299 300 300 301 303 307 309 312 316 322 322 322 321 321 322 321 326 326 323 321 321 323 330 326 333 330 322 326 325 321 322 324 322 324 325 325 318 316 316 318 322 317 316 316
299 300 300 303 305 308 309 313 318 319 320 320 321 319 318 323 325 328 324 324 323 329 329 331 332 330 328 326 321 322 322 326 324 327 323 323 315 316 318 321 316 315 315 315
301 301 301 305 306 308 309 314 318 324 324 324 322 320 319 319 322 325 322 324 324 326 329 328 333 322 318 325 328 319 324 324 328 322 324 318 315 315 314 315 315 315 315 315
301 302 304 308 309 310 311 314 319 324 323 323 321 323 319 318 320 325 324 324 324 324 326 330 331 320 326 323 329 325 320 318 323 321 316 316 315 315 315 315 316 316 316 316
302 303 305 309 311 311 314 313 317 324 322 322 324 321 320 319 322 324 325 326 324 326 325 328 317 323 323 328 327 330 321 318 318 319 318 316 316 317 317 317 317 317 316 316
306 309 310 311 311 312 311 313 321 323 321 323 322 321 319 317 318 321 323 325 323 325 325 315 330 323 325 322 324 326 318 318 323 324 318 318 317 315 314 313 311 310 310 307
309 310 310 310 312 312 314 318 319 320 324 322 325 320 321 320 321 321 322 323 323 323 326 324 321 319 324 324 325 318 317 316 316 318 316 317 314 311 309 308 307 306 305 304
311 311 311 312 312 313 318 317 318 319 322 321 321 319 319 322 321 322 322 323 324 324 323 323 321 318 322 318 325 318 314 313 315 313 314 313 313 309 308 305 303 303 302 301
311 312 312 313 313 316 318 315 317 318 319 321 319 314 319 320 321 320 321 323 323 320 318 319 322 317 321 324 317 313 311 312 311 310 311 310 308 306 303 302 301 300 299 298
312 313 314 314 314 317 316 315 317 316 316 318 318 317 320 317 315 316 317 321 320 316 316 322 319 315 320 317 313 311 310 312 310 309 308 306 304 303 302 300 299 298 298 298
315 315 316 316 316 313 314 314 317 313 313 316 313 315 317 315 313 312 314 314 316 316 315 314 317 316 309 308 308 308 308 309 308 306 303 302 301 301 300 300 299 298 297 295
315 314 313 313 313 312 312 313 316 314 315 312 310 312 316 314 317 313 312 315 315 316 315 317 315 314 307 305 305 305 306 306 306 305 302 301 301 300 299 297 295 293 291 290
314 314 311 310 311 310 310 312 311 315 314 306 310 310 311 311 314 312 311 311 312 315 311 314 314 309 304 303 302 303 303 303 302 301 300 299 298 297 296 292 291 291 291 291
313 311 310 311 309 312 315 311 311 309 305 305 308 308 309 309 311 310 310 311 315 311 312 312 310 303 302 302 302 301 300 300 299 297 296 296 294 292 291 291 291 292 291 290
309 308 307 306 308 304 304 304 304 300 303 307 307 307 308 307 308 309 310 306 310 312 313 312 304 301 300 301 300 299 298 297 296 295 292 291 291 291 291 291 290 290 289 289
303 303 304 302 298 299 299 299 300 301 304 307 309 309 309 307 306 308 307 309 312 311 312 305 301 300 300 300 299 298 295 295 295 292 292 292 291 291 291 290 290 289 288 287
299 298 301 300 301 300 299 299 299 302 304 306 307 308 309 307 309 311 309 313 312 307 302 299 299 299 299 299 296 295 296 297 296 292 292 292 292 291 290 289 289 288 288 286
299 298 297 298 298 298 297 298 300 302 302 303 305 308 305 305 309 308 305 305 303 299 298 298 298 299 298 296 296 297 296 295 294 292 292 292 292 290 289 288 288 286 286 285

GFSNW_850_thetae_027.txt.gz
Theta_e
297 302 301 301 303 304 308 314 315 314 309 314 315 317 320 321 322 322 321 321 320 318 320 319 316 317 322 321 321 321 320 321 321 324 321 321 320 321 322 316 319 317 315 317
298 301 300 303 302 304 309 314 315 314 311 313 314 315 319 321 322 322 321 322 321 320 320 322 318 323 322 322 322 321 322 319 315 317 318 321 321 320 320 322 317 318 314 317
299 300 303 304 302 303 310 314 316 318 316 312 314 314 318 321 321 322 321 322 321 321 320 320 320 323 322 322 319 319 322 321 317 316 318 321 322 323 321 319 315 317 316 319
299 299 302 303 303 303 310 313 314 318 319 318 314 316 318 322 323 321 321 321 321 320 320 321 321 324 322 322 319 320 319 319 320 321 322 322 321 322 321 319 319 318 318 320
297 297 299 303 303 303 309 313 315 319 319 318 318 315 320 322 321 321 321 321 320 319 321 322 321 324 323 322 320 320 320 321 321 321 320 318 318 319 318 318 318 317 318 318
296 297 299 302 302 303 307 311 315 318 319 318 318 316 320 322 321 321 320 322 322 321 323 323 324 324 324 322 321 320 319 315 314 319 315 314 310 313 316 318 317 317 315 315
295 297 299 302 302 304 306 309 314 318 317 320 317 317 319 321 321 322 321 321 320 323 323 322 322 320 321 322 320 323 317 317 312 313 311 308 313 315 314 316 314 313 313 313
296 297 300 302 302 303 304 310 312 319 311 318 316 317 320 322 322 321 324 325 324 323 322 319 320 314 313 319 318 320 320 312 314 312 313 313 315 316 317 315 314 314 313 313
297 298 301 302 302 302 303 308 311 316 319 319 317 317 321 322 320 322 323 323 323 324 321 312 320 318 318 319 318 316 315 313 309 311 313 311 315 315 315 315 313 315 315 314
298 301 301 301 300 302 304 305 306 311 319 320 319 318 321 323 322 320 322 321 322 325 310 317 314 315 320 320 318 314 311 310 310 308 309 313 318 315 315 311 312 316 315 315
300 300 300 299 300 302 304 305 308 312 316 321 321 319 321 323 323 319 322 321 319 316 317 315 314 313 314 316 319 316 314 313 309 313 314 316 315 315 311 315 315 315 314 314
299 299 299 299 300 303 304 304 307 311 311 317 323 321 320 322 323 323 321 323 321 323 319 316 313 315 310 314 314 318 316 317 314 315 313 315 314 314 314 314 314 315 316 316
298 299 299 300 300 302 304 304 307 309 312 315 319 321 323 324 324 322 321 323 323 325 324 318 314 316 308 314 313 318 318 318 314 314 316 315 314 315 316 315 316 316 317 316
298 299 300 301 301 306 306 304 308 311 314 315 322 321 321 325 324 323 321 323 324 325 322 317 310 315 321 310 315 313 316 315 316 314 315 317 316 316 316 316 316 314 314 312
300 301 301 301 304 305 306 307 309 311 313 318 321 320 319 323 324 323 324 324 324 324 316 306 312 317 315 310 309 309 316 315 311 309 317 314 312 312 313 313 310 308 310 308
301 301 302 303 305 307 307 309 310 313 313 314 315 320 321 319 321 323 325 324 324 324 322 319 320 319 316 309 307 316 316 317 318 316 316 313 310 311 309 309 308 307 307 306
302 301 303 304 308 308 308 311 315 316 312 316 311 311 321 322 322 323 323 323 324 324 323 323 317 317 318 305 310 314 314 314 313 314 312 310 310 305 307 307 305 304 302 300
304 304 305 308 310 309 309 311 316 318 320 319 312 311 316 320 321 320 322 323 321 319 317 320 314 317 317 310 312 312 312 311 311 312 314 308 306 305 303 302 301 299 298 297
308 308 310 310 310 311 314 315 315 316 317 313 311 312 315 318 315 317 319 321 310 316 308 310 312 304 311 314 311 311 311 311 309 308 307 306 304 302 301 299 298 298 298 298
310 311 312 315 314 313 316 314 314 313 312 313 306 312 312 313 312 312 312 314 311 308 310 314 306 304 307 308 309 309 310 309 308 306 303 302 301 300 299 299 298 298 298 294
314 314 313 312 314 312 312 311 311 312 304 310 310 311 311 314 309 308 311 308 306 307 308 308 309 306 306 306 306 307 308 308 307 307 304 302 300 299 299 298 296 293 291 291
314 313 312 312 312 310 307 305 304 308 308 306 307 309 311 312 313 306 310 308 305 310 309 310 308 304 304 305 305 305 305 305 303 302 301 300 300 299 297 292 291 291 290 290
313 313 310 309 306 309 309 307 308 307 303 305 308 305 309 309 310 308 306 312 310 308 309 308 303 304 303 303 302 302 301 301 300 299 299 299 298 294 292 291 291 290 290 289
309 305 304 304 306 302 301 302 302 301 303 306 307 306 306 307 304 304 308 304 305 310 310 307 302 302 302 302 301 300 298 298 299 298 297 294 292 291 291 291 290 290 289 288
302 301 302 300 298 299 299 299 300 301 304 307 308 306 306 303 305 304 305 308 309 308 305 302 301 302 301 300 299 298 297 297 294 292 291 291 291 291 290 290 289 288 288 287
299 298 300 300 300 299 298 299 300 302 304 306 307 303 305 305 305 307 308 308 305 303 300 300 300 301 300 298 297 296 295 294 293 292 291 291 291 290 290 289 288 287 287 286
298 297 297 298 298 297 298 299 300 302 302 302 302 305 303 302 306 304 301 301 300 298 298 299 299 299 298 297 296 296 296 296 293 292 292 292 291 289 289 288 286 286 285 284

GFSNW_850_thetae_030.txt.gz
Theta_e
299 299 298 297 300 303 304 308 313 313 314 311 312 317 317 316 319 320 322 320 320 316 316 316 315 315 315 319 320 319 320 320 318 321 319 320 318 319 319 315 316 314 313 317
298 298 297 296 299 301 303 309 312 313 315 311 311 313 316 316 317 320 321 321 320 319 319 319 319 319 321 321 319 319 318 318 315 317 316 317 319 318 318 317 312 316 314 316
297 298 297 296 301 300 304 309 313 313 313 314 309 313 316 317 316 318 320 321 320 320 319 319 320 322 321 321 319 320 319 317 315 315 315 316 321 322 321 318 314 315 314 317
296 296 296 296 301 301 303 310 313 313 314 313 310 311 314 315 315 319 320 320 320 320 318 319 320 322 321 321 318 319 316 318 317 316 320 321 319 321 321 318 317 316 316 317
295 295 295 296 301 302 304 310 313 314 314 313 312 311 313 313 314 317 318 320 320 318 318 317 320 322 320 319 319 318 317 318 319 320 317 316 317 316 316 317 317 317 317 317
294 294 296 297 300 302 305 305 312 315 314 314 314 312 313 313 313 317 317 319 319 318 318 321 320 322 321 320 318 318 317 313 312 317 312 311 312 313 314 316 317 316 314 314
294 294 296 300 301 302 304 304 310 315 314 316 315 314 313 313 315 316 319 318 319 320 321 321 321 319 319 321 321 319 314 313 308 311 308 310 314 313 313 313 312 311 312 312
294 296 298 299 300 302 304 307 307 314 309 316 317 316 314 314 316 319 318 321 320 322 321 316 317 312 314 316 317 318 317 311 313 310 310 312 314 315 312 313 314 313 312 312
296 297 297 298 299 302 302 305 308 309 316 316 318 316 315 314 317 317 322 322 322 322 314 310 316 316 316 317 316 313 313 308 310 310 311 309 311 314 314 312 313 314 313 313
296 296 296 298 300 301 302 304 305 305 310 317 317 316 315 314 319 318 321 322 323 323 309 311 312 315 316 316 315 311 308 307 307 303 306 309 311 314 313 310 309 314 314 314
295 295 297 298 301 302 302 304 304 305 309 313 318 316 315 318 320 319 320 320 319 311 314 313 311 308 313 313 315 314 312 310 307 311 309 313 314 313 312 310 314 314 314 314
296 296 298 300 302 302 302 303 303 307 305 311 314 318 316 316 320 321 321 320 320 319 316 313 310 312 308 311 315 315 314 311 311 311 311 313 313 314 315 314 314 315 315 316
297 297 299 301 302 302 301 302 304 304 306 310 315 319 322 319 318 322 321 321 322 322 320 314 313 312 305 312 309 314 315 316 313 313 314 313 314 313 314 315 315 315 316 316
299 299 300 301 300 300 301 302 303 306 310 311 318 321 322 322 320 322 322 320 321 324 324 311 308 311 312 306 311 310 313 314 314 312 315 315 314 313 313 313 313 313 313 313
300 300 300 299 299 299 301 302 303 309 311 312 312 319 323 324 322 322 322 320 321 322 313 305 308 308 313 303 306 307 314 312 310 310 315 313 312 310 312 312 311 310 311 308
299 299 299 300 300 300 302 304 304 306 309 309 310 318 321 323 324 323 322 321 323 321 318 311 317 319 313 306 306 313 316 316 315 315 315 314 310 309 309 311 308 307 307 305
299 299 300 300 302 304 305 307 310 309 307 307 310 311 320 321 323 323 323 324 323 321 320 317 314 316 314 302 310 313 314 316 316 316 314 307 308 306 306 307 305 304 302 300
300 301 301 302 304 305 306 309 311 312 310 311 310 313 315 319 318 318 321 320 319 317 317 318 308 315 309 310 311 313 312 312 312 312 314 312 307 305 304 303 301 300 298 297
301 302 303 305 308 308 307 309 312 310 313 312 307 311 315 316 314 316 318 316 310 313 307 308 310 306 308 311 310 310 310 312 307 309 309 306 305 303 301 300 298 298 297 297
302 302 306 307 308 308 309 309 312 313 313 311 306 311 311 314 311 309 309 311 307 310 308 312 305 306 306 309 310 310 310 310 308 305 302 302 300 300 298 298 298 298 297 297
305 310 311 309 308 307 310 310 308 309 304 307 310 311 310 314 309 307 309 307 303 308 308 307 307 307 304 306 308 308 309 308 308 308 305 303 303 300 299 298 298 296 293 291
311 310 310 308 309 308 305 304 305 305 307 306 306 309 311 312 311 307 307 307 303 307 307 305 311 305 305 306 306 307 306 306 305 305 303 301 300 299 298 297 293 291 291 290
311 310 309 308 304 306 304 307 307 306 302 305 307 305 309 309 310 305 304 307 306 305 309 308 302 303 304 304 304 304 304 304 303 301 301 300 299 296 296 292 291 290 290 288
308 303 302 303 303 301 301 302 302 301 303 306 307 305 305 307 305 302 308 304 304 304 304 304 302 302 302 301 302 303 301 302 301 300 299 298 296 292 292 291 290 289 288 287
300 300 301 300 298 298 299 299 300 302 304 307 306 305 306 302 305 303 304 307 307 304 304 302 302 302 300 299 300 300 299 299 298 297 295 293 293 293 291 290 289 288 288 287
298 297 299 298 299 298 298 299 300 302 305 306 305 303 304 304 304 306 306 306 305 302 299 299 301 300 300 299 298 297 297 297 293 292 293 292 291 290 289 288 287 287 287 287
296 297 296 297 297 298 298 298 299 302 303 302 301 303 303 302 303 301 300 299 298 297 298 299 300 299 299 298 297 296 294 293 295 293 291 290 289 289 288 288 286 286 286 285

GFSNW_850_thetae_036.txt.gz
Theta_e
302 301 299 298 303 301 301 304 303 305 306 312 313 314 312 313 317 317 318 319 320 317 313 313 313 313 313 314 315 314 315 313 312 316 317 316 314 315 314 314 316 311 311 314
303 301 300 298 301 300 301 304 305 308 308 312 312 312 312 313 315 315 316 318 319 318 315 314 313 312 313 314 314 315 316 314 314 315 314 315 318 316 315 312 310 314 312 314
303 301 300 299 301 300 301 303 304 309 309 311 310 311 312 312 314 314 315 317 319 319 318 314 313 314 318 316 315 316 315 314 314 316 315 314 317 317 315 315 313 313 312 314
303 301 300 299 302 300 301 303 304 309 309 309 311 310 311 312 313 314 314 315 317 318 319 317 318 318 319 317 317 314 314 315 313 314 314 315 316 318 315 316 315 316 316 313
303 301 300 300 301 300 301 302 305 308 309 308 310 312 311 312 312 314 313 315 315 316 318 315 316 319 317 317 315 315 312 315 314 317 315 315 317 315 314 315 315 314 313 314
302 301 300 299 302 299 300 300 304 308 308 309 309 310 311 311 312 313 314 313 313 315 315 316 316 316 316 315 316 314 312 311 312 316 311 313 313 311 313 313 312 314 315 313
302 301 299 301 300 299 299 300 303 307 309 310 309 308 310 311 312 313 313 314 313 313 317 317 317 316 316 316 315 313 309 310 308 309 308 312 313 311 311 311 310 310 309 310
302 300 300 300 299 299 299 300 302 306 307 309 311 310 308 310 311 312 313 313 313 315 317 316 318 312 316 315 312 311 310 308 309 312 311 311 313 311 311 311 311 309 309 309
300 300 300 300 298 298 298 299 301 303 307 309 310 311 309 309 310 309 311 312 312 313 314 311 317 319 317 316 317 310 309 306 311 305 310 312 312 311 311 310 311 309 310 309
300 300 300 300 299 298 298 297 299 302 302 307 310 310 310 310 309 309 310 312 314 313 302 307 310 316 315 317 318 314 309 306 310 302 306 310 309 310 311 312 311 311 312 312
300 300 299 298 298 298 298 297 299 301 302 304 307 311 311 310 310 310 311 315 315 307 313 312 310 306 312 312 314 315 317 313 308 305 306 316 310 311 311 310 310 312 313 313
299 299 299 298 298 298 298 297 297 301 303 305 308 310 313 311 311 310 312 313 315 315 314 307 308 307 303 311 314 311 316 314 313 312 313 311 311 311 312 312 312 312 313 313
298 298 297 296 296 296 295 296 298 301 303 304 305 308 313 313 312 311 311 314 316 318 318 311 311 313 306 312 311 313 311 309 310 310 311 309 313 312 313 313 314 313 314 313
297 296 296 295 295 296 297 297 301 302 305 305 307 312 313 314 315 314 312 316 316 319 318 311 309 311 309 308 312 310 310 310 310 309 312 312 313 312 313 313 313 313 313 313
295 295 295 295 296 297 298 299 303 302 304 306 306 308 312 316 318 318 315 313 316 318 313 306 310 308 310 303 309 306 311 311 311 313 312 313 313 313 312 312 313 313 314 313
297 297 297 297 298 298 299 300 302 302 304 305 305 308 312 317 318 319 317 315 317 318 316 309 313 315 313 311 311 312 315 315 315 314 314 313 313 312 311 312 312 313 313 312
295 296 296 297 298 300 300 301 303 303 304 306 305 302 311 315 318 319 319 318 319 319 316 311 312 313 311 303 311 312 314 314 314 315 314 309 310 309 310 311 310 309 309 308
295 297 298 299 301 301 300 301 305 302 303 303 306 306 310 314 315 314 317 318 318 315 313 311 307 309 304 310 310 311 312 313 311 311 313 314 311 308 307 308 307 306 304 303
298 300 300 300 300 300 301 302 304 303 304 305 306 309 310 311 311 312 314 315 306 311 307 307 309 306 312 309 309 309 308 311 309 310 310 309 309 306 305 305 304 305 301 300
299 299 301 301 300 303 304 305 304 305 306 308 305 309 308 310 308 307 308 308 307 308 308 309 306 308 306 307 308 310 309 309 308 307 301 303 302 304 303 304 303 303 301 299
301 301 302 302 302 306 304 302 305 306 305 307 308 310 309 309 307 308 307 306 304 312 310 311 309 311 305 306 308 309 310 308 309 311 310 307 308 305 303 300 300 300 298 297
302 304 304 305 305 304 304 303 302 303 307 304 305 308 311 310 307 305 306 308 305 312 305 309 312 306 303 304 305 306 307 307 308 309 308 305 304 303 301 299 297 297 296 295
305 307 304 304 300 305 304 308 306 306 301 303 305 305 308 308 308 302 305 309 308 303 309 309 305 303 302 303 304 304 305 306 305 304 304 303 302 300 300 298 296 294 294 292
303 302 300 301 301 300 300 300 301 300 300 302 304 303 303 304 304 302 308 304 305 308 307 305 302 301 300 301 302 303 302 302 302 301 301 300 300 298 296 295 293 292 290 291
299 299 300 300 299 298 298 299 299 300 302 304 304 304 304 303 304 303 305 307 305 303 303 300 299 300 300 300 300 300 300 301 301 300 299 298 296 295 294 292 291 291 291 288
297 296 297 297 298 297 296 296 298 300 303 304 303 302 304 303 300 299 299 302 300 299 297 297 297 298 298 298 298 298 299 299 297 296 296 296 295 292 291 290 289 289 288 287
296 296 292 293 294 293 293 292 294 300 301 301 300 297 296 297 297 294 293 295 295 293 295 296 297 297 297 297 297 297 297 296 295 295 294 292 292 291 290 289 286 285 285 285

GFSNW_850_thetae_039.txt.gz
Theta_e
303 303 302 302 301 298 301 302 302 303 303 308 311 312 312 313 314 316 317 318 320 318 315 314 315 316 316 312 313 316 317 317 318 318 316 316 316 319 319 323 319 316 318 319
304 303 303 301 301 298 302 302 302 303 303 309 310 311 311 312 313 315 317 318 318 318 315 315 314 313 313 312 314 317 317 316 318 317 317 316 319 317 315 315 315 318 325 321
303 303 303 302 301 298 302 302 304 304 304 307 308 310 311 312 312 313 316 317 317 318 318 314 314 314 315 313 314 314 315 316 318 318 318 317 319 318 316 319 320 320 319 320
300 303 303 302 301 299 300 302 304 306 306 306 307 309 310 312 312 313 314 315 317 318 318 316 316 315 318 316 316 315 317 318 316 315 314 315 316 318 317 318 319 322 321 316
298 302 303 302 301 299 300 301 304 305 308 305 307 309 310 311 312 312 314 315 315 316 319 317 317 319 318 318 315 316 313 318 314 315 314 315 318 316 317 317 316 316 316 317
298 301 303 302 300 299 301 301 303 304 307 307 306 307 309 311 312 311 312 313 314 315 315 316 316 315 316 317 318 316 315 316 316 318 312 315 318 316 316 315 315 318 319 319
298 300 302 301 300 299 301 301 303 305 306 308 306 306 309 310 311 311 311 312 313 312 313 316 316 315 315 315 315 314 313 314 314 316 312 321 317 312 313 316 315 313 313 313
298 299 302 300 300 299 301 301 303 305 305 308 308 308 307 310 310 311 312 313 313 313 314 315 317 315 316 314 313 313 311 312 313 319 318 315 314 313 314 315 316 313 313 311
300 301 302 301 300 300 301 300 301 304 305 307 308 308 307 309 310 310 311 312 313 313 312 313 319 322 319 318 316 310 309 310 319 310 319 321 317 313 310 312 316 312 311 312
299 300 301 301 300 300 300 300 301 303 303 304 308 310 309 308 309 310 309 311 312 312 308 313 316 320 316 320 319 316 314 312 317 310 319 316 313 310 311 317 319 311 311 312
301 301 301 300 300 301 299 300 299 301 301 303 306 308 309 308 308 309 309 311 312 309 312 314 314 314 316 317 316 316 318 318 317 311 317 322 310 310 316 316 311 311 311 312
301 301 300 301 300 300 299 298 300 299 301 302 304 305 308 308 309 308 310 309 311 311 314 310 309 313 309 315 320 311 320 318 319 318 321 315 310 314 313 312 312 311 312 312
300 300 302 301 300 300 298 298 297 297 298 300 301 304 307 309 310 309 310 310 312 312 313 312 313 313 310 315 314 314 311 309 317 316 315 313 312 311 312 312 312 312 313 313
300 300 300 299 300 299 298 298 297 297 300 301 303 307 306 309 311 310 309 311 311 316 315 312 311 314 312 314 315 315 313 312 312 314 312 312 312 313 313 313 312 312 312 313
300 300 299 299 299 299 298 298 298 297 300 304 304 305 304 307 312 313 311 310 313 314 313 308 314 309 311 306 310 311 311 314 315 317 314 315 315 315 314 313 313 313 313 311
300 299 299 298 297 297 296 297 296 299 299 303 304 306 308 310 313 314 315 313 311 314 314 310 312 313 313 314 316 314 314 314 314 314 315 313 313 313 314 313 313 313 312 312
298 297 296 296 296 296 298 300 300 299 303 303 304 304 309 312 314 316 317 316 315 314 314 312 313 313 312 307 316 314 315 314 314 314 315 311 312 312 311 311 312 312 311 310
295 295 295 296 297 298 300 303 301 301 303 303 303 304 307 312 313 313 316 316 316 315 313 309 311 309 305 311 311 314 314 313 312 314 313 315 314 311 310 310 310 310 309 307
297 297 297 298 299 300 300 301 303 303 303 302 302 306 311 311 310 311 311 312 311 311 309 310 312 308 315 312 309 310 311 312 311 310 310 311 310 310 308 308 307 309 305 303
297 297 299 299 299 300 300 303 302 303 304 306 305 308 310 309 305 305 307 306 309 314 310 308 310 311 306 306 307 308 309 309 309 308 304 304 304 304 302 302 301 303 303 301
300 301 301 300 301 302 303 301 303 304 305 304 304 308 309 309 308 308 307 306 305 313 312 313 311 312 304 305 307 307 308 307 306 308 308 306 305 302 303 301 302 302 299 298
302 302 301 303 304 304 302 302 301 303 308 304 305 305 310 308 308 305 306 308 305 313 306 311 313 305 302 304 305 304 304 305 308 307 310 309 304 302 304 301 299 299 298 297
303 303 304 303 300 305 305 307 306 305 301 303 305 304 308 307 306 302 304 307 309 305 310 308 304 300 300 301 303 305 305 304 308 305 305 304 302 301 301 299 298 297 296 294
300 300 301 300 300 300 300 300 301 299 299 301 304 302 303 304 303 301 308 304 303 308 307 305 300 298 298 300 300 301 301 303 304 302 299 299 298 297 297 297 296 295 294 292
298 298 300 299 298 296 297 296 299 298 300 302 303 303 304 302 304 302 304 306 303 301 301 299 297 296 297 297 297 297 297 296 296 296 296 296 296 296 294 294 293 292 291 290
294 291 293 293 295 292 292 292 294 298 301 302 301 302 303 301 298 298 296 300 296 295 293 294 295 295 295 295 296 296 296 297 296 295 295 295 294 294 292 290 290 291 290 288
294 292 289 289 290 290 289 289 291 297 299 299 297 294 293 295 294 292 291 290 290 287 289 292 293 293 293 293 294 293 294 294 293 293 293 292 291 291 290 289 286 286 286 285

GFSNW_850_thetae_042.txt.gz
Theta_e
304 304 303 303 302 302 301 300 304 303 302 304 306 311 313 311 313 315 318 319 322 320 318 317 317 318 318 317 318 319 319 320 322 320 320 320 320 321 322 323 322 322 324 322
304 304 304 303 303 302 301 301 302 303 303 305 306 309 311 311 313 314 318 319 320 321 320 318 318 318 318 316 319 319 320 320 322 320 319 320 320 320 320 322 321 323 327 323
300 304 303 304 303 302 301 301 304 304 304 304 307 308 311 311 311 313 316 318 319 321 321 319 318 318 317 316 318 318 319 320 320 321 319 319 321 320 321 322 324 323 324 321
297 301 303 304 304 301 301 302 304 304 306 306 307 309 309 310 312 312 314 318 319 320 320 320 319 317 318 317 316 317 320 320 320 319 318 318 318 318 321 321 322 322 322 321
298 298 303 304 304 301 301 301 305 305 305 305 307 310 310 310 311 312 313 316 318 319 319 319 320 320 320 319 319 319 319 319 320 320 319 319 319 319 319 321 320 321 321 320
300 298 299 304 303 300 300 301 304 305 306 307 307 310 309 310 311 311 311 313 314 317 318 318 316 316 316 317 321 321 321 320 320 319 319 319 321 321 320 321 321 321 321 321
300 299 297 301 301 301 300 301 304 306 308 308 307 306 307 308 310 312 311 311 314 314 315 314 315 316 317 318 318 319 321 321 322 321 318 326 319 319 320 320 321 321 320 320
300 299 297 299 302 301 300 301 303 304 309 308 307 306 307 307 308 311 311 313 313 313 313 313 312 313 316 319 320 320 320 322 322 327 321 320 318 317 318 320 321 320 320 319
300 299 298 298 301 301 301 301 302 304 308 308 306 308 306 309 310 312 311 310 314 313 316 317 317 312 312 319 320 315 317 318 325 319 323 326 319 320 317 318 323 320 319 319
300 299 298 299 300 300 301 301 302 304 305 305 306 308 308 307 309 312 311 312 314 314 317 321 318 316 314 318 323 319 318 318 324 324 326 322 320 317 315 321 323 319 318 317
300 299 299 302 300 300 300 300 301 304 305 306 306 307 308 307 308 312 311 313 315 317 317 317 318 322 320 318 320 321 321 322 323 323 327 327 316 315 320 322 319 318 317 317
299 299 299 301 300 300 300 300 301 302 303 303 304 304 307 308 308 309 311 311 312 314 316 318 318 321 318 321 322 318 322 322 324 322 323 322 315 320 318 319 319 317 317 316
299 300 301 300 300 300 300 300 301 302 303 302 301 304 303 306 308 309 310 311 310 312 313 318 320 324 320 324 322 322 318 314 321 320 321 320 318 317 316 315 316 316 315 316
300 302 300 300 301 300 300 300 300 301 302 302 302 303 305 306 308 309 309 311 311 313 313 317 319 322 317 322 320 321 320 315 319 321 321 317 317 317 317 315 313 313 314 315
301 300 300 301 300 299 299 299 299 300 301 303 302 303 304 305 307 308 310 310 313 313 317 315 317 316 317 316 317 321 316 319 321 325 322 321 321 319 317 315 313 313 313 313
300 300 300 300 299 299 299 298 299 299 300 300 305 305 304 304 305 309 311 311 311 312 314 316 316 316 317 322 320 316 317 317 317 319 317 316 317 313 316 315 313 313 312 312
301 301 300 300 300 300 299 299 299 299 298 300 303 306 307 306 307 311 312 311 311 311 313 315 316 317 316 319 321 317 318 317 317 315 315 314 318 314 313 314 312 311 310 309
300 300 300 299 299 297 299 302 301 297 299 300 305 306 307 309 312 313 313 314 313 313 313 313 317 316 315 319 318 318 317 314 314 314 314 314 313 312 309 312 311 308 307 306
298 297 297 297 297 297 301 300 298 298 303 305 304 307 312 310 310 311 311 313 315 313 316 316 316 317 319 316 316 314 312 312 312 312 310 312 312 308 305 305 304 305 302 301
295 296 298 298 299 299 302 301 300 302 304 305 306 305 304 306 307 311 308 307 309 313 313 313 317 318 312 308 308 309 309 309 309 307 306 305 307 308 304 305 302 301 300 299
298 299 300 300 300 301 303 302 302 302 304 305 306 306 304 305 311 311 309 309 306 314 314 317 316 317 308 305 306 306 306 306 306 307 308 308 308 304 302 300 301 299 299 297
300 301 300 301 302 304 303 303 303 304 307 306 306 306 305 306 309 312 308 313 308 315 308 317 316 304 300 301 303 303 303 304 305 306 305 304 303 302 300 301 300 300 300 296
302 302 302 303 302 304 305 308 308 307 302 303 305 306 308 307 308 306 307 311 313 304 310 306 301 298 298 298 299 299 302 303 304 304 304 302 299 298 298 298 297 296 295 294
301 301 302 303 302 301 301 301 302 300 299 301 303 303 305 304 304 303 312 305 305 310 307 302 298 296 295 296 297 298 297 297 298 297 297 296 296 295 294 295 295 295 293 293
296 297 300 299 296 294 294 293 297 296 298 300 302 302 302 302 304 302 306 306 303 300 298 297 292 294 293 293 293 294 294 294 293 293 294 293 293 293 292 292 293 293 292 291
292 289 291 290 293 291 290 290 292 294 298 300 299 302 302 300 298 297 297 299 295 293 290 289 291 292 291 291 291 291 291 291 292 292 292 292 293 292 291 291 291 290 289 289
292 291 287 287 288 288 288 288 289 293 297 299 296 296 295 296 295 293 291 291 290 287 286 286 289 290 290 290 289 290 290 291 291 291 291 290 290 290 290 288 287 287 286 286

GFSNW_850_thetae_045.txt.gz
Theta_e
304 305 304 303 303 303 302 302 305 303 302 305 306 308 310 310 311 311 312 316 317 318 321 319 318 319 319 318 319 320 320 322 324 323 323 322 322 323 323 325 324 324 325 325
302 303 305 304 303 303 302 302 303 303 304 306 309 307 309 310 312 312 313 317 319 320 320 321 319 318 318 318 319 321 320 320 324 323 323 322 322 323 323 324 323 324 330 325
299 301 304 305 304 303 302 302 304 304 305 305 308 307 309 309 310 312 311 315 317 319 321 321 321 319 318 319 318 319 320 320 321 324 324 322 321 321 321 322 326 324 323 322
299 298 298 302 304 304 302 302 305 305 306 307 309 308 307 308 310 311 312 313 316 316 319 319 320 320 320 318 317 319 321 321 320 320 321 321 321 321 321 321 321 323 322 322
299 300 298 298 303 305 303 300 305 305 307 306 308 308 308 308 309 310 312 314 316 317 317 318 320 319 319 319 319 320 320 321 321 320 321 320 319 319 319 319 320 321 321 321
299 299 299 298 300 304 303 300 303 305 306 308 309 310 308 307 309 310 310 312 313 316 317 319 318 318 318 319 321 321 320 323 321 323 321 321 323 319 319 319 320 321 321 321
298 299 300 299 300 302 302 301 303 306 309 309 309 308 308 307 309 311 311 311 314 314 316 317 317 316 316 318 319 319 322 322 322 324 322 325 320 320 320 319 320 320 320 321
300 299 299 300 299 304 303 302 304 306 310 308 308 308 308 307 307 310 311 311 312 312 315 316 315 315 314 315 317 318 319 324 324 327 325 320 319 320 320 320 320 320 320 320
300 300 299 300 299 299 301 302 303 306 309 309 307 308 307 308 310 311 310 310 311 313 315 315 314 310 312 314 318 318 320 321 326 324 324 325 321 320 319 320 323 320 320 320
300 301 300 300 299 298 300 303 303 304 306 307 307 309 308 307 309 312 310 311 314 314 318 318 317 312 311 313 321 320 320 321 327 326 325 322 320 320 320 323 322 321 320 319
299 299 300 300 299 299 301 301 303 305 305 306 306 307 308 307 308 312 309 313 314 317 317 318 315 317 316 315 313 319 322 322 326 325 327 328 320 320 321 322 321 322 321 319
301 300 300 300 300 301 300 302 302 304 305 305 307 308 309 308 307 308 310 312 314 314 316 317 314 321 325 316 320 315 321 321 325 323 324 323 319 320 319 320 321 322 321 320
300 300 300 299 299 300 301 302 302 303 304 304 305 306 306 307 308 309 310 312 311 312 312 315 317 318 322 322 321 316 317 319 323 322 322 322 322 319 320 321 321 322 321 319
300 300 299 299 299 300 301 302 303 303 304 306 305 305 305 306 307 308 311 312 311 311 312 317 318 320 314 321 319 320 319 320 320 321 320 320 320 321 321 321 320 320 319 318
299 299 299 300 300 300 301 302 302 302 304 306 304 304 306 307 304 306 310 312 313 313 317 320 318 315 315 318 320 321 317 319 324 323 319 322 323 321 320 321 320 318 317 317
299 300 302 300 300 300 301 300 301 301 303 303 306 305 305 305 306 306 309 311 312 313 312 317 313 311 313 320 320 315 314 317 318 319 319 319 319 320 318 320 320 319 317 317
302 301 300 300 300 300 301 302 301 302 302 303 304 306 306 306 306 307 309 311 311 313 313 315 315 315 316 321 321 315 313 312 312 315 317 317 316 317 317 316 318 317 316 316
300 300 299 300 300 300 301 300 300 301 302 302 303 306 308 308 309 310 310 312 311 312 312 313 316 315 317 319 316 314 315 316 318 317 317 316 314 314 314 313 314 313 314 313
299 299 300 300 300 300 301 300 299 302 302 303 305 307 309 305 308 310 311 311 313 311 315 315 315 317 318 316 315 314 316 315 315 313 312 312 312 312 310 310 310 311 310 309
300 299 299 299 299 301 300 301 301 301 302 305 307 306 306 301 306 306 309 311 312 313 312 313 316 317 313 307 310 312 311 311 311 311 312 311 310 310 308 308 308 308 306 305
301 300 302 299 300 301 302 301 301 301 305 305 305 306 306 305 308 309 310 310 310 314 316 319 318 315 301 299 303 306 308 308 308 308 309 309 309 309 307 305 305 303 302 302
301 302 301 301 303 304 304 303 303 305 307 307 308 307 306 305 304 309 310 309 310 315 310 318 307 299 297 296 298 298 301 303 304 305 305 304 304 304 303 301 300 299 299 298
302 303 303 304 303 304 304 306 309 307 303 303 306 307 305 304 304 309 311 313 312 303 307 304 301 296 295 295 295 296 297 298 299 298 298 298 298 299 298 297 295 295 294 293
301 302 303 304 304 301 299 300 301 298 298 299 303 303 304 304 308 302 311 305 307 309 307 302 297 295 294 293 292 292 292 293 293 293 293 293 293 291 291 291 292 292 290 289
295 297 298 297 295 293 293 294 296 296 296 298 302 302 302 302 304 302 309 308 303 300 299 295 292 293 292 291 291 290 290 290 289 289 289 289 289 289 289 289 290 291 290 291
291 289 291 289 294 292 291 292 293 292 294 298 300 303 302 300 299 298 298 299 296 295 292 289 290 290 290 290 289 289 289 288 288 288 288 288 289 289 289 289 289 289 289 288
291 291 287 287 288 288 289 289 290 292 295 300 298 297 297 297 296 293 291 291 290 288 287 287 286 286 287 287 287 287 287 287 287 288 288 287 288 288 288 286 286 286 286 286

GFSNW_850_thetae_051.txt.gz
Theta_e
301 302 303 303 304 304 304 304 304 303 303 304 304 305 306 307 306 308 308 310 310 311 313 313 314 318 321 320 318 319 318 320 318 318 320 320 320 320 321 323 325 325 318 322
300 301 302 303 303 304 305 304 303 303 303 304 305 305 306 307 307 308 308 308 310 311 312 313 314 320 320 321 318 319 318 318 318 319 319 320 320 320 321 323 324 324 322 324
300 301 302 302 303 304 304 302 303 304 305 304 304 305 305 306 307 307 307 309 308 308 311 312 313 319 321 320 318 319 318 318 318 318 320 323 323 322 321 322 321 323 322 324
300 300 301 302 302 303 305 301 303 304 306 305 305 304 305 306 307 307 306 307 308 308 310 312 313 318 319 319 320 318 318 318 318 319 319 321 323 323 321 322 323 323 323 323
301 302 302 302 302 303 305 300 304 304 304 305 305 305 305 305 306 306 307 307 308 308 308 311 313 317 318 319 320 318 318 319 318 319 320 321 320 320 321 321 322 323 322 322
301 300 300 302 303 303 305 302 303 304 304 305 305 305 305 306 306 306 307 307 307 308 309 310 316 318 319 319 319 320 320 318 319 319 319 319 318 319 320 321 321 319 319 318
298 298 299 304 303 304 305 303 303 303 307 304 305 305 305 305 308 307 308 308 307 307 308 315 316 315 315 316 318 320 320 319 317 317 318 320 318 318 320 321 321 318 317 317
298 298 298 299 302 302 302 301 303 304 305 305 305 305 306 306 306 307 308 309 308 307 308 313 314 312 314 315 318 319 318 318 318 319 319 319 319 320 320 319 319 318 317 316
299 298 298 298 300 300 302 301 301 304 304 306 305 306 306 306 306 306 307 307 308 308 308 312 313 312 317 318 319 319 319 319 318 316 319 320 318 319 319 318 319 317 317 317
299 300 300 299 298 299 301 301 300 300 301 305 306 306 306 307 307 307 307 308 308 308 307 308 310 312 315 316 316 318 319 316 318 314 316 318 319 318 319 320 318 318 319 319
301 301 301 300 298 298 299 300 300 300 300 305 306 307 308 307 307 307 308 309 309 309 309 309 308 308 313 314 313 312 317 318 315 318 320 321 317 319 318 317 318 318 319 320
299 300 301 301 299 299 299 300 299 300 299 305 306 306 307 307 308 308 309 309 308 309 308 310 310 308 310 311 312 313 317 317 317 317 316 318 317 318 320 320 321 320 321 322
300 300 301 301 300 299 299 300 300 300 299 301 306 307 307 307 308 309 310 309 309 311 310 309 312 310 310 311 311 313 314 315 315 317 317 315 314 316 315 318 317 320 321 320
300 300 300 301 300 299 299 300 300 300 301 303 304 305 307 306 305 307 308 310 310 312 312 310 310 309 313 308 313 312 312 314 317 317 316 316 315 314 315 317 319 319 319 319
301 301 301 300 301 300 300 300 300 301 304 304 305 304 306 306 306 306 308 309 309 311 310 306 308 310 312 311 311 310 313 313 315 313 317 317 317 317 317 318 317 317 318 318
300 300 300 300 300 299 300 301 300 300 305 306 303 305 306 307 308 307 308 308 309 310 311 310 309 310 313 310 309 313 315 315 315 314 314 318 319 318 318 318 317 318 316 318
301 300 300 300 300 300 300 302 302 301 304 305 303 305 307 306 307 307 307 306 309 310 310 310 312 312 313 303 308 312 312 313 314 315 315 316 316 316 316 316 316 316 316 317
301 300 300 300 302 302 302 302 303 304 304 304 301 301 304 307 308 307 308 308 308 308 309 310 308 311 310 309 305 304 305 310 311 312 313 314 314 314 314 314 314 314 314 314
300 300 301 302 301 301 302 303 303 303 303 303 301 301 303 306 307 307 308 308 305 308 303 307 309 305 305 301 299 300 301 303 306 310 310 311 312 312 312 312 311 310 311 312
300 301 301 300 301 302 302 302 302 302 303 304 301 305 303 305 304 306 306 308 302 304 304 310 305 301 298 296 296 297 297 300 304 306 303 306 308 308 308 308 308 308 308 309
301 300 300 301 301 301 302 302 301 302 300 304 304 305 302 303 303 304 304 305 304 310 307 308 307 298 296 293 294 292 295 297 299 300 301 302 303 305 305 305 304 304 305 306
302 301 301 301 301 303 301 300 300 301 303 304 300 305 305 303 303 299 303 306 304 309 304 304 299 295 293 292 291 290 292 293 295 296 298 299 300 300 301 300 300 300 298 298
303 301 300 302 301 302 301 303 304 303 298 297 301 303 305 304 303 298 302 306 308 302 302 296 294 292 291 290 290 289 289 290 291 291 291 292 292 293 294 293 292 293 293 291
300 300 296 297 296 296 294 295 296 296 296 296 297 301 301 300 299 301 306 302 301 301 298 292 291 290 290 289 288 288 287 287 288 287 288 288 288 288 288 288 289 290 289 288
291 292 293 291 293 292 292 292 294 295 294 295 299 300 300 300 301 299 302 300 295 294 291 290 288 288 288 287 287 287 286 286 285 286 286 285 286 285 285 285 286 287 286 286
289 288 288 289 288 286 291 291 292 293 294 297 300 301 299 297 295 294 293 293 291 289 288 286 286 286 286 286 286 285 285 285 285 285 285 285 285 285 284 285 285 284 284 284
291 289 288 289 289 289 290 290 290 294 295 297 296 293 293 294 289 288 288 286 286 286 285 284 284 284 284 284 284 284 284 284 284 284 283 283 284 284 284 283 283 283 282 282

GFSNW_850_thetae_054.txt.gz
Theta_e
298 298 299 301 302 303 304 305 304 304 303 303 302 303 304 306 307 307 308 308 308 310 310 312 312 314 315 318 317 317 315 316 317 317 317 317 317 319 319 322 323 321 317 321
298 298 298 300 302 303 303 304 302 303 303 303 303 302 304 305 306 307 306 308 308 307 309 309 312 313 314 317 320 318 316 316 317 318 317 318 317 318 319 321 320 323 322 322
298 299 299 299 301 302 303 301 303 303 303 303 303 303 303 304 305 305 306 307 307 308 308 308 310 311 313 316 319 319 318 317 317 318 318 318 321 319 319 320 319 321 321 322
299 299 300 300 301 301 302 300 302 304 305 304 303 303 304 304 304 305 306 307 306 307 308 307 307 311 316 317 318 318 319 318 318 317 318 318 318 320 321 319 319 321 321 322
299 299 300 300 300 301 302 300 302 303 303 304 304 303 304 304 305 306 306 306 306 307 307 307 307 308 314 317 319 319 318 320 316 318 318 319 318 317 320 320 320 321 320 321
299 299 300 300 300 300 302 303 303 304 304 304 306 305 303 304 304 305 305 306 306 306 306 306 308 314 313 317 318 317 318 319 318 319 317 318 318 318 318 318 319 320 321 320
300 300 301 300 301 301 301 303 302 303 306 303 305 305 304 304 305 304 305 305 305 306 307 308 312 314 314 316 318 317 317 317 318 315 316 320 318 317 317 317 318 318 317 316
298 298 298 300 301 302 301 303 303 303 305 304 303 304 305 305 304 305 306 306 306 306 307 306 307 307 310 312 315 318 316 317 316 315 317 317 317 317 317 318 317 317 316 316
297 297 297 298 298 300 300 303 302 304 304 305 304 304 304 304 304 304 304 305 307 306 304 305 306 306 311 315 316 316 318 317 315 316 318 318 316 316 318 317 317 316 316 317
298 298 298 298 298 298 299 303 302 301 300 303 304 304 304 304 304 304 304 305 305 306 303 303 306 307 311 312 312 316 316 316 317 316 316 315 316 316 318 319 317 317 317 318
300 300 299 299 298 298 298 300 300 301 300 302 303 305 305 305 304 304 305 306 306 305 305 305 304 303 310 311 312 311 313 316 316 315 318 317 317 319 318 316 318 318 319 320
300 300 300 299 299 299 298 299 299 300 301 302 303 304 306 305 305 305 306 306 306 307 305 304 304 305 301 308 310 311 313 312 315 315 316 315 317 318 317 316 318 319 318 319
300 300 300 302 299 300 299 299 299 299 300 300 300 302 305 306 307 306 307 308 308 309 308 306 307 308 304 306 307 310 311 311 313 314 315 316 316 316 314 315 316 316 318 318
300 300 300 300 300 299 299 299 299 300 300 300 302 301 302 307 307 307 308 308 309 309 310 306 303 305 310 304 310 308 310 314 315 314 314 315 315 315 313 313 315 315 317 318
301 301 300 299 300 300 299 299 299 300 301 301 302 303 306 306 306 306 307 308 308 308 308 305 305 307 308 306 309 311 311 313 314 313 314 315 314 314 315 314 315 316 316 317
300 300 300 300 301 299 299 300 300 300 300 304 304 303 305 306 305 304 305 307 308 308 309 307 309 310 311 308 309 308 307 308 310 311 314 316 318 319 317 316 317 316 316 316
300 300 299 301 299 299 300 301 300 300 301 301 303 304 306 306 308 307 305 307 308 308 308 308 310 309 310 305 309 304 304 304 308 310 314 315 313 313 314 314 315 316 315 315
301 301 300 300 299 299 301 302 300 300 300 303 301 303 304 306 307 306 306 306 307 308 308 308 307 309 309 308 299 299 300 302 305 307 309 309 312 312 311 312 312 313 313 313
301 301 300 300 300 300 302 301 300 300 303 301 299 302 306 306 306 307 307 307 303 306 303 302 307 302 299 297 296 296 296 297 300 304 307 308 308 306 308 308 308 308 307 309
300 300 300 299 301 302 301 301 301 301 303 304 298 302 304 304 303 304 303 305 299 306 303 307 299 297 296 293 293 293 293 296 297 302 302 303 302 300 301 302 303 304 302 301
301 301 300 301 301 301 301 300 299 300 300 302 303 302 300 304 299 301 303 303 304 307 305 303 298 295 293 291 290 291 292 293 295 296 296 298 298 297 297 298 298 299 300 300
301 301 301 301 302 302 298 298 297 298 303 301 297 302 302 302 303 299 303 305 303 308 301 298 293 293 291 290 289 289 289 290 292 293 293 293 293 294 295 293 292 293 293 292
302 301 300 299 296 293 294 300 298 299 297 296 299 303 302 303 301 298 302 305 306 300 296 292 291 290 289 288 288 287 287 287 288 289 290 290 289 290 290 288 288 289 289 288
297 295 290 290 290 292 291 290 289 294 295 295 297 300 301 300 296 300 304 298 296 294 289 290 289 288 288 287 286 286 285 285 285 285 285 286 286 286 286 286 287 288 287 287
290 290 288 288 289 290 291 291 292 293 294 295 299 300 298 297 297 294 297 293 291 290 288 286 286 286 286 285 285 284 284 284 284 284 284 284 284 284 284 284 285 285 285 285
288 288 286 288 285 286 289 290 291 292 294 296 297 299 297 294 291 290 290 290 288 287 286 285 284 285 285 285 284 284 284 283 283 284 284 284 284 284 283 284 284 284 284 283
289 287 286 287 288 287 287 289 288 292 294 293 292 290 291 291 290 288 287 286 285 284 283 283 283 283 283 283 283 283 283 283 283 283 282 282 282 282 283 282 281 282 282 281

GFSNW_850_thetae_057.txt.gz
Theta_e
295 295 297 297 299 300 302 303 304 303 304 303 303 302 302 304 305 306 307 308 308 308 309 310 311 313 312 315 317 316 314 315 316 316 315 316 316 317 318 319 321 318 315 319
295 297 298 298 299 300 302 303 301 303 304 304 302 302 302 303 305 305 306 306 307 307 307 307 308 311 311 314 316 319 318 316 317 317 315 315 316 315 316 318 317 320 320 321
297 297 298 298 298 299 301 300 302 301 303 303 303 303 303 303 304 305 305 306 306 307 307 307 307 308 309 309 317 318 318 317 316 318 317 316 318 317 316 318 318 318 320 319
297 297 297 298 299 299 300 300 301 303 304 303 303 303 303 303 304 304 305 305 305 306 307 307 307 307 309 310 317 318 318 319 319 316 316 317 318 318 316 317 318 319 318 319
297 297 298 299 299 299 299 299 301 303 302 304 303 304 304 303 303 304 304 304 305 305 305 306 306 306 307 309 315 317 317 318 317 316 317 316 317 317 317 317 317 318 318 318
297 298 298 299 299 299 301 301 301 303 304 304 304 303 303 304 304 304 303 304 304 304 305 305 306 306 306 310 312 315 316 316 317 318 317 316 317 317 317 317 318 319 320 318
298 298 298 299 299 300 301 301 302 303 305 303 304 304 303 303 304 304 304 304 304 305 305 305 306 309 309 312 315 315 316 316 316 318 315 321 318 316 316 317 316 316 317 317
298 299 299 299 299 300 299 301 302 303 304 304 303 304 305 304 303 304 304 304 305 305 305 304 305 303 307 308 312 316 314 315 315 319 319 316 318 316 316 316 317 315 316 316
299 299 299 300 300 300 299 299 301 303 304 304 304 304 304 304 303 304 303 304 305 305 303 304 306 305 307 312 315 315 314 312 313 314 318 319 315 314 315 315 317 314 314 315
296 297 297 299 299 300 301 301 300 302 302 303 304 304 303 304 303 303 303 304 304 304 301 302 304 306 308 308 310 312 315 314 316 316 317 314 315 315 317 319 318 315 316 317
298 297 297 297 297 298 299 300 301 301 301 302 303 304 304 303 304 302 304 304 303 302 302 303 304 300 306 308 310 310 311 313 314 314 316 316 314 314 319 315 316 317 318 317
299 299 298 298 298 298 298 298 299 300 301 302 303 304 304 304 304 304 304 305 305 304 303 301 302 301 298 306 307 309 310 308 310 311 313 314 312 313 312 313 316 316 316 318
300 300 300 299 299 298 298 298 299 299 299 301 302 303 304 305 304 304 304 305 306 307 307 303 304 305 301 302 304 308 308 309 309 311 310 312 311 311 311 311 315 315 315 315
300 300 300 300 300 300 299 299 298 299 300 299 300 303 303 305 305 305 305 305 306 308 308 305 303 302 306 302 306 304 306 309 310 310 310 311 312 312 314 314 316 315 316 317
300 300 300 300 299 300 299 299 299 299 300 299 300 302 302 302 305 306 307 307 306 308 306 304 306 304 306 304 305 307 309 310 311 309 311 310 313 314 315 315 313 315 316 316
300 300 300 300 299 299 299 299 298 299 299 302 301 302 303 302 302 306 307 307 308 308 308 306 308 309 309 305 305 305 304 305 306 308 310 308 311 310 312 312 313 313 314 313
301 300 300 300 301 299 299 300 300 299 301 301 302 304 304 304 304 304 304 305 307 308 307 306 307 309 310 304 304 301 301 301 305 305 307 310 309 306 308 310 311 311 311 312
301 300 300 299 300 299 300 301 299 300 300 300 302 304 304 306 305 305 306 306 308 307 307 307 306 308 308 305 297 297 297 298 303 304 303 303 306 307 308 307 310 310 309 308
300 301 299 299 300 301 300 300 299 299 301 301 299 301 306 303 304 306 306 305 301 304 301 303 306 301 299 295 294 294 294 294 296 300 302 303 306 304 304 302 304 303 300 302
299 299 299 299 301 300 300 300 300 299 300 302 301 301 304 304 301 301 302 303 303 306 304 303 295 296 292 291 291 291 291 293 295 297 300 299 299 299 299 298 297 298 294 294
300 300 300 300 300 301 300 299 300 299 299 300 300 302 302 303 300 301 301 304 303 306 305 304 297 294 291 289 289 288 289 291 292 293 293 293 293 292 291 292 294 292 293 293
301 300 300 300 300 299 297 298 296 300 302 299 300 301 302 302 302 298 302 304 302 305 297 295 293 291 289 288 287 287 287 288 288 289 289 289 290 289 290 288 288 290 288 287
300 299 296 295 292 289 290 295 297 297 296 295 299 302 301 301 300 299 302 305 303 295 293 291 289 288 287 286 285 285 285 286 286 285 285 285 285 286 287 286 285 286 286 286
294 291 286 286 286 289 289 288 287 293 294 294 299 300 300 300 299 299 300 294 292 289 287 289 287 286 285 285 284 284 284 284 284 284 284 284 284 284 284 285 285 286 285 285
289 288 287 287 287 288 289 290 291 292 293 295 299 297 296 293 292 291 291 288 287 287 284 284 284 284 284 284 283 283 283 283 282 283 283 283 284 284 284 284 284 284 284 284
288 286 285 286 284 285 287 288 288 291 293 295 296 295 293 290 289 288 288 288 286 284 283 284 283 283 283 283 283 283 282 282 282 282 282 283 283 283 282 283 283 283 283 282
287 285 285 285 285 285 285 286 287 291 292 290 291 290 291 290 288 286 285 284 284 282 281 282 282 282 282 283 283 283 283 283 283 283 283 282 282 282 282 281 280 281 280 280

GFSNW_850_thetae_060.txt.gz
Theta_e
293 294 294 295 295 296 298 300 301 301 303 303 300 304 303 301 302 304 306 308 308 308 307 307 311 313 312 309 314 313 313 313 315 315 314 314 314 315 316 317 318 317 316 318
294 294 294 294 295 297 298 300 301 301 303 304 303 304 303 302 302 305 305 306 307 306 306 305 308 309 309 307 310 319 318 314 315 315 314 314 314 314 315 316 315 317 320 319
294 294 295 295 296 297 298 299 301 301 302 302 303 303 303 303 302 302 305 305 305 306 306 306 307 307 308 307 308 312 317 318 315 317 316 315 316 315 314 316 316 316 316 318
294 295 295 296 297 298 298 299 299 302 303 303 303 303 303 303 303 303 304 304 305 306 306 305 306 307 307 308 309 317 316 318 318 318 317 317 316 317 315 315 315 316 316 316
293 293 294 296 297 298 299 299 300 301 302 303 304 303 303 304 303 303 304 304 304 304 305 305 305 304 305 306 309 311 315 316 315 316 317 317 317 314 314 314 315 315 316 316
294 295 296 297 297 298 299 299 300 303 303 304 303 304 304 303 303 302 303 303 303 303 304 304 304 304 305 306 307 310 313 313 314 318 316 316 316 316 315 316 315 315 317 316
296 296 297 297 298 298 299 299 300 301 304 303 304 304 303 303 303 303 304 303 302 303 304 304 305 304 304 304 305 308 314 314 312 315 314 319 316 313 314 315 315 314 315 316
297 297 297 297 298 298 299 299 300 301 302 304 303 304 303 303 303 304 303 303 303 304 305 304 305 303 305 307 310 310 314 313 314 313 313 313 313 315 314 316 316 314 313 313
298 298 298 298 298 298 298 299 300 301 302 303 303 304 304 303 303 302 303 303 304 304 302 304 308 304 305 308 312 309 311 311 311 315 314 314 311 314 314 316 316 314 314 314
297 297 299 299 299 299 299 299 300 302 302 302 303 303 304 304 303 303 303 303 303 304 302 306 308 307 305 306 310 313 313 313 315 314 314 312 312 313 315 319 312 313 314 315
296 296 297 299 299 299 299 299 299 300 300 302 303 303 304 304 303 303 303 304 302 300 301 303 306 302 304 305 307 311 312 313 310 312 314 312 312 314 319 315 314 314 314 314
299 297 297 297 298 299 299 299 299 300 300 301 302 303 303 304 304 303 304 304 302 302 301 300 301 300 296 305 307 308 308 308 308 309 310 309 312 313 311 312 314 315 314 313
300 299 298 297 297 298 299 298 300 300 299 300 301 302 303 303 303 304 303 303 304 304 304 300 301 303 299 301 303 306 306 307 308 308 308 309 310 311 311 311 311 311 312 314
300 299 299 298 298 297 298 298 298 299 300 301 301 302 303 304 304 304 303 304 305 305 306 303 300 302 304 300 304 303 304 307 308 307 309 310 311 311 311 311 312 313 313 312
300 300 300 299 299 298 298 298 298 299 300 300 300 301 303 304 304 304 304 304 304 306 306 300 304 302 305 302 304 305 306 308 307 306 309 308 309 309 309 309 308 310 312 313
300 300 300 300 300 299 299 298 298 298 299 301 300 301 302 303 304 305 305 305 306 307 306 304 306 308 307 307 303 305 304 304 303 306 305 306 307 308 308 309 304 307 305 306
300 300 300 300 300 300 299 299 299 298 300 300 301 302 303 302 302 302 305 306 306 307 307 306 305 307 307 306 307 300 300 299 301 303 304 307 305 303 303 308 307 304 300 303
300 300 299 300 300 299 299 300 300 299 300 300 301 303 304 304 304 304 304 305 304 305 305 305 304 306 306 307 296 296 295 295 299 301 301 301 302 301 302 303 300 301 303 303
300 299 300 299 298 299 300 299 299 299 300 298 298 303 305 304 304 305 304 305 303 303 302 301 305 303 301 293 292 292 292 293 294 295 299 300 299 297 295 297 296 297 297 301
300 299 299 299 299 299 299 299 300 299 299 301 301 300 303 301 301 301 302 301 300 301 301 300 296 294 290 289 289 289 289 290 291 293 296 295 295 293 291 293 292 288 290 289
300 300 300 299 300 300 300 298 298 299 300 299 300 300 303 302 299 302 300 302 302 305 301 300 297 293 290 288 287 287 287 288 289 290 291 291 290 290 289 288 288 288 288 287
301 300 300 300 299 298 298 299 298 300 302 298 301 300 301 302 302 300 301 302 303 302 295 295 291 290 288 287 286 285 286 286 287 287 287 287 287 286 286 284 283 284 285 285
300 299 294 293 290 291 293 295 295 296 295 295 299 301 300 299 300 300 301 304 298 294 292 290 288 287 286 285 284 284 284 284 284 284 284 284 284 284 284 283 283 284 284 283
292 289 285 285 283 286 287 286 286 291 293 294 299 300 299 297 298 296 298 291 290 287 287 287 286 285 284 283 283 283 282 282 282 282 282 282 282 282 282 282 283 283 283 283
288 287 284 285 286 286 287 288 290 290 292 296 297 293 293 289 287 289 290 287 287 287 284 284 283 283 283 283 282 282 282 282 282 282 282 282 283 282 282 282 283 283 282 282
286 284 283 284 282 283 285 286 287 290 293 295 295 289 288 286 287 286 285 287 285 282 282 282 282 282 282 282 282 282 282 282 282 282 282 282 282 282 281 281 281 281 281 280
286 284 283 283 283 283 284 285 286 290 291 288 290 288 290 289 286 283 283 280 279 280 281 282 282 282 282 282 282 282 282 282 282 281 281 281 281 281 282 281 280 280 280 279